Wetterdaten: Mittwoch, 31.03.2021
Datum Zeit Temp. Aussen Temp. o. S. Temp +5cm Feuchte Auss Luftdruck Regen Sonnenschein Regendauer Solar Windben Empfang
31.03.2021 00:00 11,5 C 10,0 C 6,7 C 65 % 1026,3 hPa 0,0 l/m 0 min 0 min 0 W/m 0,0 km/h (0 Bft) 100,00 %
31.03.2021 00:02 11,5 C 10,0 C 6,7 C 65 % 1026,3 hPa 0,0 l/m 0 min 0 min 0 W/m 0,0 km/h (0 Bft) 100,00 %
31.03.2021 00:04 11,5 C 10,0 C 6,7 C 65 % 1026,2 hPa 0,0 l/m 0 min 0 min 0 W/m 0,0 km/h (0 Bft) 100,00 %
31.03.2021 00:08 11,4 C 9,4 C 6,7 C 66 % 1026,2 hPa 0,0 l/m 0 min 0 min 0 W/m 0,0 km/h (0 Bft) 96,81 %
31.03.2021 00:10 11,4 C 9,4 C 6,7 C 66 % 1026,1 hPa 0,0 l/m 0 min 0 min 0 W/m 0,0 km/h (0 Bft) 97,87 %
31.03.2021 00:12 11,4 C 9,4 C 6,7 C 66 % 1026,2 hPa 0,0 l/m 0 min 0 min 0 W/m 0,0 km/h (0 Bft) 97,87 %
31.03.2021 00:14 11,3 C 9,4 C 6,7 C 66 % 1026,1 hPa 0,0 l/m 0 min 0 min 0 W/m 0,0 km/h (0 Bft) 97,87 %
31.03.2021 00:16 11,3 C 9,4 C 6,7 C 66 % 1026,1 hPa 0,0 l/m 0 min 0 min 0 W/m 0,0 km/h (0 Bft) 97,83 %
31.03.2021 00:18 11,2 C 9,4 C 6,7 C 66 % 1026,1 hPa 0,0 l/m 0 min 0 min 0 W/m 0,0 km/h (0 Bft) 97,87 %
31.03.2021 00:20 11,1 C 9,4 C 6,7 C 66 % 1026,1 hPa 0,0 l/m 0 min 0 min 0 W/m 0,0 km/h (0 Bft) 97,87 %
31.03.2021 00:22 11,1 C 9,4 C 6,7 C 66 % 1026,0 hPa 0,0 l/m 0 min 0 min 0 W/m 0,0 km/h (0 Bft) 97,87 %
31.03.2021 00:24 11,0 C 9,4 C 6,7 C 66 % 1026,0 hPa 0,0 l/m 0 min 0 min 0 W/m 0,0 km/h (0 Bft) 97,87 %
31.03.2021 00:26 11,0 C 9,4 C 6,7 C 66 % 1026,0 hPa 0,0 l/m 0 min 0 min 0 W/m 0,0 km/h (0 Bft) 97,83 %
31.03.2021 00:28 11,0 C 9,4 C 6,7 C 66 % 1026,0 hPa 0,0 l/m 0 min 0 min 0 W/m 0,0 km/h (0 Bft) 97,87 %
31.03.2021 00:30 10,9 C 9,4 C 6,7 C 66 % 1026,0 hPa 0,0 l/m 0 min 0 min 0 W/m 0,0 km/h (0 Bft) 97,87 %
31.03.2021 00:32 10,9 C 9,4 C 6,7 C 66 % 1025,9 hPa 0,0 l/m 0 min 0 min 0 W/m 0,0 km/h (0 Bft) 98,15 %
31.03.2021 00:34 10,9 C 9,4 C 6,7 C 66 % 1026,0 hPa 0,0 l/m 0 min 0 min 0 W/m 0,0 km/h (0 Bft) 95,74 %
31.03.2021 00:36 10,9 C 9,4 C 6,7 C 66 % 1025,9 hPa 0,0 l/m 0 min 0 min 0 W/m 0,0 km/h (0 Bft) 97,83 %
31.03.2021 00:38 10,9 C 9,4 C 6,7 C 66 % 1026,0 hPa 0,0 l/m 0 min 0 min 0 W/m 0,0 km/h (0 Bft) 100,00 %
31.03.2021 00:40 10,9 C 9,4 C 6,7 C 67 % 1026,0 hPa 0,0 l/m 0 min 0 min 0 W/m 0,0 km/h (0 Bft) 100,00 %
31.03.2021 00:42 10,8 C 9,4 C 6,7 C 67 % 1025,9 hPa 0,0 l/m 0 min 0 min 0 W/m 0,0 km/h (0 Bft) 100,00 %
31.03.2021 00:44 10,8 C 9,4 C 6,7 C 67 % 1025,9 hPa 0,0 l/m 0 min 0 min 0 W/m 0,0 km/h (0 Bft) 100,00 %
31.03.2021 00:46 10,8 C 9,4 C 6,7 C 67 % 1025,9 hPa 0,0 l/m 0 min 0 min 0 W/m 0,0 km/h (0 Bft) 97,87 %
31.03.2021 00:48 10,8 C 9,4 C 6,7 C 67 % 1025,9 hPa 0,0 l/m 0 min 0 min 0 W/m 0,0 km/h (0 Bft) 100,00 %
31.03.2021 00:50 10,7 C 9,4 C 6,7 C 67 % 1025,9 hPa 0,0 l/m 0 min 0 min 0 W/m 0,0 km/h (0 Bft) 100,00 %
31.03.2021 00:52 10,7 C 8,9 C 6,7 C 67 % 1025,9 hPa 0,0 l/m 0 min 0 min 0 W/m 0,0 km/h (0 Bft) 100,00 %
31.03.2021 00:54 10,6 C 8,9 C 6,7 C 67 % 1025,9 hPa 0,0 l/m 0 min 0 min 0 W/m 0,0 km/h (0 Bft) 100,00 %
31.03.2021 00:56 10,6 C 8,9 C 6,1 C 67 % 1025,9 hPa 0,0 l/m 0 min 0 min 0 W/m 0,0 km/h (0 Bft) 100,00 %
31.03.2021 00:58 10,6 C 8,9 C 6,1 C 67 % 1025,8 hPa 0,0 l/m 0 min 0 min 0 W/m 0,0 km/h (0 Bft) 100,00 %
31.03.2021 01:00 10,6 C 8,9 C 6,1 C 67 % 1025,9 hPa 0,0 l/m 0 min 0 min 0 W/m 0,0 km/h (0 Bft) 100,00 %
31.03.2021 01:02 10,5 C 8,9 C 6,1 C 68 % 1025,9 hPa 0,0 l/m 0 min 0 min 0 W/m 0,0 km/h (0 Bft) 97,83 %
31.03.2021 01:04 10,5 C 8,9 C 6,1 C 68 % 1025,9 hPa 0,0 l/m 0 min 0 min 0 W/m 0,0 km/h (0 Bft) 100,00 %
31.03.2021 01:06 10,5 C 8,9 C 6,1 C 68 % 1025,8 hPa 0,0 l/m 0 min 0 min 0 W/m 0,0 km/h (0 Bft) 100,00 %
31.03.2021 01:08 10,5 C 9,4 C 6,1 C 68 % 1025,9 hPa 0,0 l/m 0 min 0 min 0 W/m 0,0 km/h (0 Bft) 100,00 %
31.03.2021 01:10 10,4 C 9,4 C 6,1 C 67 % 1025,8 hPa 0,0 l/m 0 min 0 min 0 W/m 0,0 km/h (0 Bft) 100,00 %
31.03.2021 01:12 10,4 C 9,4 C 6,7 C 66 % 1025,8 hPa 0,0 l/m 0 min 0 min 0 W/m 3,2 km/h (1 Bft) 100,00 %
31.03.2021 01:14 10,4 C 10,0 C 6,7 C 66 % 1025,8 hPa 0,0 l/m 0 min 0 min 0 W/m 3,2 km/h (1 Bft) 100,00 %
31.03.2021 01:16 10,4 C 10,0 C 7,3 C 66 % 1025,8 hPa 0,0 l/m 0 min 0 min 0 W/m 3,2 km/h (1 Bft) 100,00 %
31.03.2021 01:18 10,5 C 10,6 C 7,3 C 65 % 1025,8 hPa 0,0 l/m 0 min 0 min 0 W/m 3,2 km/h (1 Bft) 97,87 %
31.03.2021 01:20 10,5 C 10,6 C 7,3 C 65 % 1025,8 hPa 0,0 l/m 0 min 0 min 0 W/m 3,2 km/h (1 Bft) 100,00 %
31.03.2021 01:22 10,5 C 10,6 C 7,3 C 65 % 1025,8 hPa 0,0 l/m 0 min 0 min 0 W/m 0,0 km/h (0 Bft) 100,00 %
31.03.2021 01:24 10,6 C 10,6 C 7,8 C 65 % 1025,8 hPa 0,0 l/m 0 min 0 min 0 W/m 3,2 km/h (1 Bft) 100,00 %
31.03.2021 01:26 10,6 C 10,6 C 7,8 C 64 % 1025,8 hPa 0,0 l/m 0 min 0 min 0 W/m 3,2 km/h (1 Bft) 100,00 %
31.03.2021 01:28 10,6 C 11,1 C 7,8 C 64 % 1025,8 hPa 0,0 l/m 0 min 0 min 0 W/m 3,2 km/h (1 Bft) 100,00 %
31.03.2021 01:30 10,7 C 10,6 C 7,8 C 64 % 1025,8 hPa 0,0 l/m 0 min 0 min 0 W/m 0,0 km/h (0 Bft) 100,00 %
31.03.2021 01:32 10,8 C 10,6 C 7,3 C 63 % 1025,8 hPa 0,0 l/m 0 min 0 min 0 W/m 0,0 km/h (0 Bft) 97,87 %
31.03.2021 01:34 10,8 C 10,6 C 7,3 C 63 % 1025,8 hPa 0,0 l/m 0 min 0 min 0 W/m 0,0 km/h (0 Bft) 100,00 %
31.03.2021 01:36 10,8 C 10,6 C 7,3 C 63 % 1025,7 hPa 0,0 l/m 0 min 0 min 0 W/m 3,2 km/h (1 Bft) 100,00 %
31.03.2021 01:38 10,9 C 10,6 C 7,3 C 63 % 1025,7 hPa 0,0 l/m 0 min 0 min 0 W/m 3,2 km/h (1 Bft) 100,00 %
31.03.2021 01:40 10,9 C 10,6 C 7,3 C 64 % 1025,8 hPa 0,0 l/m 0 min 0 min 0 W/m 3,2 km/h (1 Bft) 100,00 %
31.03.2021 01:42 11,0 C 10,6 C 7,8 C 64 % 1025,7 hPa 0,0 l/m 0 min 0 min 0 W/m 3,2 km/h (1 Bft) 97,87 %
31.03.2021 01:44 11,0 C 10,6 C 7,8 C 63 % 1025,7 hPa 0,0 l/m 0 min 0 min 0 W/m 3,2 km/h (1 Bft) 100,00 %
31.03.2021 01:46 11,1 C 11,1 C 7,8 C 62 % 1025,7 hPa 0,0 l/m 0 min 0 min 0 W/m 3,2 km/h (1 Bft) 97,87 %
31.03.2021 01:48 11,1 C 11,1 C 7,8 C 62 % 1025,7 hPa 0,0 l/m 0 min 0 min 0 W/m 6,4 km/h (2 Bft) 100,00 %
31.03.2021 01:50 11,3 C 11,1 C 8,4 C 61 % 1025,7 hPa 0,0 l/m 0 min 0 min 0 W/m 3,2 km/h (1 Bft) 100,00 %
31.03.2021 01:52 11,3 C 11,7 C 8,4 C 61 % 1025,6 hPa 0,0 l/m 0 min 0 min 0 W/m 6,4 km/h (2 Bft) 100,00 %
31.03.2021 01:54 11,4 C 11,7 C 8,4 C 60 % 1025,6 hPa 0,0 l/m 0 min 0 min 0 W/m 3,2 km/h (1 Bft) 97,87 %
31.03.2021 01:56 11,5 C 11,7 C 8,4 C 60 % 1025,6 hPa 0,0 l/m 0 min 0 min 0 W/m 3,2 km/h (1 Bft) 95,74 %
31.03.2021 01:58 11,5 C 11,7 C 8,4 C 60 % 1025,6 hPa 0,0 l/m 0 min 0 min 0 W/m 3,2 km/h (1 Bft) 95,74 %
31.03.2021 02:00 11,6 C 11,7 C 8,4 C 60 % 1025,6 hPa 0,0 l/m 0 min 0 min 0 W/m 3,2 km/h (1 Bft) 97,87 %
31.03.2021 02:02 11,6 C 11,7 C 8,4 C 60 % 1025,6 hPa 0,0 l/m 0 min 0 min 0 W/m 3,2 km/h (1 Bft) 98,15 %
31.03.2021 02:04 11,7 C 11,7 C 8,4 C 60 % 1025,5 hPa 0,0 l/m 0 min 0 min 0 W/m 3,2 km/h (1 Bft) 97,87 %
31.03.2021 02:06 11,8 C 11,7 C 8,4 C 60 % 1025,6 hPa 0,0 l/m 0 min 0 min 0 W/m 3,2 km/h (1 Bft) 97,87 %
31.03.2021 02:08 11,8 C 11,7 C 8,4 C 60 % 1025,6 hPa 0,0 l/m 0 min 0 min 0 W/m 6,4 km/h (2 Bft) 97,87 %
31.03.2021 02:10 11,9 C 11,7 C 8,9 C 60 % 1025,6 hPa 0,0 l/m 0 min 0 min 0 W/m 6,4 km/h (2 Bft) 97,83 %
31.03.2021 02:12 11,9 C 11,7 C 8,9 C 59 % 1025,6 hPa 0,0 l/m 0 min 0 min 0 W/m 6,4 km/h (2 Bft) 95,74 %
31.03.2021 02:14 12,0 C 11,7 C 8,4 C 59 % 1025,6 hPa 0,0 l/m 0 min 0 min 0 W/m 3,2 km/h (1 Bft) 91,49 %
31.03.2021 02:16 12,0 C 11,7 C 8,9 C 59 % 1025,5 hPa 0,0 l/m 0 min 0 min 0 W/m 3,2 km/h (1 Bft) 91,49 %
31.03.2021 02:18 12,0 C 11,7 C 8,4 C 59 % 1025,5 hPa 0,0 l/m 0 min 0 min 0 W/m 3,2 km/h (1 Bft) 91,49 %
31.03.2021 02:20 12,1 C 11,7 C 8,4 C 59 % 1025,5 hPa 0,0 l/m 0 min 0 min 0 W/m 3,2 km/h (1 Bft) 93,62 %
31.03.2021 02:22 12,1 C 11,7 C 8,4 C 59 % 1025,4 hPa 0,0 l/m 0 min 0 min 0 W/m 3,2 km/h (1 Bft) 93,48 %
31.03.2021 02:24 12,1 C 11,7 C 8,4 C 59 % 1025,4 hPa 0,0 l/m 0 min 0 min 0 W/m 6,4 km/h (2 Bft) 93,62 %
31.03.2021 02:26 12,1 C 11,1 C 8,4 C 59 % 1025,4 hPa 0,0 l/m 0 min 0 min 0 W/m 3,2 km/h (1 Bft) 93,62 %
31.03.2021 02:28 12,1 C 11,1 C 8,4 C 59 % 1025,4 hPa 0,0 l/m 0 min 0 min 0 W/m 3,2 km/h (1 Bft) 93,62 %
31.03.2021 02:30 12,2 C 11,1 C 8,4 C 59 % 1025,4 hPa 0,0 l/m 0 min 0 min 0 W/m 3,2 km/h (1 Bft) 89,36 %
31.03.2021 02:32 12,1 C 11,1 C 8,4 C 59 % 1025,3 hPa 0,0 l/m 0 min 0 min 0 W/m 6,4 km/h (2 Bft) 93,62 %
31.03.2021 02:34 12,2 C 11,7 C 8,4 C 59 % 1025,3 hPa 0,0 l/m 0 min 0 min 0 W/m 9,7 km/h (2 Bft) 93,48 %
31.03.2021 02:36 12,2 C 11,7 C 8,4 C 59 % 1025,3 hPa 0,0 l/m 0 min 0 min 0 W/m 6,4 km/h (2 Bft) 95,74 %
31.03.2021 02:38 12,2 C 11,7 C 8,4 C 59 % 1025,3 hPa 0,0 l/m 0 min 0 min 0 W/m 12,9 km/h (3 Bft) 95,74 %
31.03.2021 02:40 12,2 C 11,7 C 8,4 C 59 % 1025,2 hPa 0,0 l/m 0 min 0 min 0 W/m 9,7 km/h (2 Bft) 95,74 %
31.03.2021 02:42 12,2 C 11,7 C 8,9 C 59 % 1025,2 hPa 0,0 l/m 0 min 0 min 0 W/m 12,9 km/h (3 Bft) 95,74 %
31.03.2021 02:44 12,2 C 11,7 C 8,9 C 60 % 1025,2 hPa 0,0 l/m 0 min 0 min 0 W/m 6,4 km/h (2 Bft) 93,62 %
31.03.2021 02:46 12,2 C 11,7 C 8,4 C 60 % 1025,2 hPa 0,0 l/m 0 min 0 min 0 W/m 6,4 km/h (2 Bft) 95,65 %
31.03.2021 02:48 12,2 C 11,7 C 8,9 C 60 % 1025,1 hPa 0,0 l/m 0 min 0 min 0 W/m 9,7 km/h (2 Bft) 93,62 %
31.03.2021 02:50 12,2 C 11,1 C 8,9 C 60 % 1025,1 hPa 0,0 l/m 0 min 0 min 0 W/m 6,4 km/h (2 Bft) 95,74 %
31.03.2021 02:52 12,2 C 11,1 C 8,4 C 60 % 1025,1 hPa 0,0 l/m 0 min 0 min 0 W/m 6,4 km/h (2 Bft) 94,74 %
31.03.2021 02:54 12,2 C 11,1 C 8,4 C 60 % 1025,1 hPa 0,0 l/m 0 min 0 min 0 W/m 6,4 km/h (2 Bft) 95,92 %
31.03.2021 02:56 12,2 C 11,1 C 8,4 C 60 % 1025,1 hPa 0,0 l/m 0 min 0 min 0 W/m 6,4 km/h (2 Bft) 95,74 %
31.03.2021 02:58 12,2 C 11,1 C 8,4 C 60 % 1025,1 hPa 0,0 l/m 0 min 0 min 0 W/m 6,4 km/h (2 Bft) 95,74 %
31.03.2021 03:00 12,2 C 11,1 C 8,4 C 60 % 1025,1 hPa 0,0 l/m 0 min 0 min 0 W/m 6,4 km/h (2 Bft) 95,65 %
31.03.2021 03:02 12,1 C 11,1 C 8,4 C 60 % 1025,0 hPa 0,0 l/m 0 min 0 min 0 W/m 6,4 km/h (2 Bft) 96,00 %
31.03.2021 03:04 12,1 C 11,1 C 8,4 C 60 % 1025,0 hPa 0,0 l/m 0 min 0 min 0 W/m 3,2 km/h (1 Bft) 95,92 %
31.03.2021 03:06 12,1 C 11,1 C 8,4 C 60 % 1025,0 hPa 0,0 l/m 0 min 0 min 0 W/m 6,4 km/h (2 Bft) 95,74 %
31.03.2021 03:08 12,1 C 11,1 C 8,4 C 60 % 1025,0 hPa 0,0 l/m 0 min 0 min 0 W/m 6,4 km/h (2 Bft) 97,87 %
31.03.2021 03:10 12,1 C 11,1 C 8,4 C 60 % 1024,9 hPa 0,0 l/m 0 min 0 min 0 W/m 3,2 km/h (1 Bft) 97,87 %
31.03.2021 03:12 12,1 C 11,1 C 8,4 C 60 % 1024,9 hPa 0,0 l/m 0 min 0 min 0 W/m 3,2 km/h (1 Bft) 97,87 %
31.03.2021 03:14 12,1 C 10,6 C 8,4 C 61 % 1024,9 hPa 0,0 l/m 0 min 0 min 0 W/m 3,2 km/h (1 Bft) 97,87 %
31.03.2021 03:16 12,0 C 10,6 C 8,4 C 61 % 1024,9 hPa 0,0 l/m 0 min 0 min 0 W/m 3,2 km/h (1 Bft) 95,74 %
31.03.2021 03:18 12,0 C 10,6 C 8,4 C 61 % 1024,9 hPa 0,0 l/m 0 min 0 min 0 W/m 6,4 km/h (2 Bft) 97,87 %
31.03.2021 03:20 12,0 C 10,6 C 7,8 C 61 % 1024,8 hPa 0,0 l/m 0 min 0 min 0 W/m 3,2 km/h (1 Bft) 93,62 %
31.03.2021 03:22 12,0 C 10,6 C 7,8 C 61 % 1024,8 hPa 0,0 l/m 0 min 0 min 0 W/m 3,2 km/h (1 Bft) 97,83 %
31.03.2021 03:24 11,9 C 10,6 C 7,8 C 61 % 1024,8 hPa 0,0 l/m 0 min 0 min 0 W/m 3,2 km/h (1 Bft) 97,87 %
31.03.2021 03:26 11,9 C 10,6 C 7,8 C 61 % 1024,7 hPa 0,0 l/m 0 min 0 min 0 W/m 3,2 km/h (1 Bft) 97,87 %
31.03.2021 03:28 11,9 C 10,6 C 7,8 C 61 % 1024,8 hPa 0,0 l/m 0 min 0 min 0 W/m 6,4 km/h (2 Bft) 100,00 %
31.03.2021 03:30 11,9 C 10,6 C 7,8 C 61 % 1024,8 hPa 0,0 l/m 0 min 0 min 0 W/m 3,2 km/h (1 Bft) 100,00 %
31.03.2021 03:32 11,8 C 10,6 C 7,8 C 62 % 1024,7 hPa 0,0 l/m 0 min 0 min 0 W/m 6,4 km/h (2 Bft) 97,87 %
31.03.2021 03:34 11,8 C 10,6 C 7,8 C 62 % 1024,7 hPa 0,0 l/m 0 min 0 min 0 W/m 3,2 km/h (1 Bft) 100,00 %
31.03.2021 03:36 11,8 C 10,6 C 7,8 C 62 % 1024,7 hPa 0,0 l/m 0 min 0 min 0 W/m 6,4 km/h (2 Bft) 95,74 %
31.03.2021 03:38 11,7 C 10,6 C 7,8 C 62 % 1024,7 hPa 0,0 l/m 0 min 0 min 0 W/m 6,4 km/h (2 Bft) 97,87 %
31.03.2021 03:40 11,7 C 10,6 C 7,8 C 62 % 1024,6 hPa 0,0 l/m 0 min 0 min 0 W/m 3,2 km/h (1 Bft) 100,00 %
31.03.2021 03:42 11,7 C 10,6 C 7,8 C 62 % 1024,6 hPa 0,0 l/m 0 min 0 min 0 W/m 6,4 km/h (2 Bft) 100,00 %
31.03.2021 03:44 11,6 C 10,6 C 7,8 C 62 % 1024,6 hPa 0,0 l/m 0 min 0 min 0 W/m 12,9 km/h (3 Bft) 100,00 %
31.03.2021 03:46 11,6 C 10,6 C 8,4 C 62 % 1024,6 hPa 0,0 l/m 0 min 0 min 0 W/m 12,9 km/h (3 Bft) 97,83 %
31.03.2021 03:48 11,6 C 10,6 C 8,4 C 62 % 1024,6 hPa 0,0 l/m 0 min 0 min 0 W/m 12,9 km/h (3 Bft) 100,00 %
31.03.2021 03:50 11,6 C 10,6 C 8,4 C 62 % 1024,6 hPa 0,0 l/m 0 min 0 min 0 W/m 6,4 km/h (2 Bft) 100,00 %
31.03.2021 03:52 11,6 C 10,6 C 8,4 C 62 % 1024,5 hPa 0,0 l/m 0 min 0 min 0 W/m 6,4 km/h (2 Bft) 100,00 %
31.03.2021 03:54 11,6 C 10,6 C 8,4 C 62 % 1024,5 hPa 0,0 l/m 0 min 0 min 0 W/m 6,4 km/h (2 Bft) 97,87 %
31.03.2021 03:56 11,6 C 10,6 C 8,4 C 62 % 1024,5 hPa 0,0 l/m 0 min 0 min 0 W/m 6,4 km/h (2 Bft) 100,00 %
31.03.2021 03:58 11,6 C 10,6 C 8,4 C 62 % 1024,5 hPa 0,0 l/m 0 min 0 min 0 W/m 6,4 km/h (2 Bft) 100,00 %
31.03.2021 04:00 11,6 C 10,6 C 8,4 C 63 % 1024,5 hPa 0,0 l/m 0 min 0 min 0 W/m 6,4 km/h (2 Bft) 100,00 %
31.03.2021 04:02 11,6 C 10,6 C 8,4 C 62 % 1024,5 hPa 0,0 l/m 0 min 0 min 0 W/m 6,4 km/h (2 Bft) 96,43 %
31.03.2021 04:04 11,6 C 10,6 C 8,4 C 62 % 1024,5 hPa 0,0 l/m 0 min 0 min 0 W/m 6,4 km/h (2 Bft) 100,00 %
31.03.2021 04:06 11,6 C 10,6 C 8,4 C 62 % 1024,5 hPa 0,0 l/m 0 min 0 min 0 W/m 12,9 km/h (3 Bft) 97,87 %
31.03.2021 04:08 11,6 C 10,6 C 8,4 C 62 % 1024,5 hPa 0,0 l/m 0 min 0 min 0 W/m 6,4 km/h (2 Bft) 100,00 %
31.03.2021 04:10 11,6 C 10,6 C 8,4 C 62 % 1024,5 hPa 0,0 l/m 0 min 0 min 0 W/m 16,1 km/h (3 Bft) 100,00 %
31.03.2021 04:12 11,5 C 10,6 C 8,4 C 62 % 1024,4 hPa 0,0 l/m 0 min 0 min 0 W/m 6,4 km/h (2 Bft) 97,87 %
31.03.2021 04:14 11,5 C 10,6 C 8,4 C 63 % 1024,4 hPa 0,0 l/m 0 min 0 min 0 W/m 12,9 km/h (3 Bft) 97,87 %
31.03.2021 04:16 11,5 C 10,6 C 7,8 C 62 % 1024,4 hPa 0,0 l/m 0 min 0 min 0 W/m 12,9 km/h (3 Bft) 97,87 %
31.03.2021 04:18 11,5 C 10,6 C 7,8 C 62 % 1024,4 hPa 0,0 l/m 0 min 0 min 0 W/m 12,9 km/h (3 Bft) 100,00 %
31.03.2021 04:20 11,5 C 10,6 C 7,8 C 63 % 1024,3 hPa 0,0 l/m 0 min 0 min 0 W/m 16,1 km/h (3 Bft) 97,87 %
31.03.2021 04:22 11,5 C 10,6 C 7,8 C 63 % 1024,3 hPa 0,0 l/m 0 min 0 min 0 W/m 16,1 km/h (3 Bft) 97,83 %
31.03.2021 04:24 11,5 C 10,6 C 7,8 C 63 % 1024,3 hPa 0,0 l/m 0 min 0 min 0 W/m 12,9 km/h (3 Bft) 97,87 %
31.03.2021 04:26 11,5 C 10,6 C 7,8 C 63 % 1024,3 hPa 0,0 l/m 0 min 0 min 0 W/m 6,4 km/h (2 Bft) 95,74 %
31.03.2021 04:28 11,4 C 10,6 C 7,8 C 63 % 1024,4 hPa 0,0 l/m 0 min 0 min 0 W/m 6,4 km/h (2 Bft) 97,87 %
31.03.2021 04:30 11,4 C 10,6 C 7,8 C 63 % 1024,3 hPa 0,0 l/m 0 min 0 min 0 W/m 12,9 km/h (3 Bft) 97,87 %
31.03.2021 04:32 11,4 C 10,6 C 7,8 C 63 % 1024,3 hPa 0,0 l/m 0 min 0 min 0 W/m 6,4 km/h (2 Bft) 97,87 %
31.03.2021 04:34 11,4 C 10,6 C 7,8 C 63 % 1024,3 hPa 0,0 l/m 0 min 0 min 0 W/m 16,1 km/h (3 Bft) 95,65 %
31.03.2021 04:36 11,4 C 10,6 C 7,8 C 63 % 1024,3 hPa 0,0 l/m 0 min 0 min 0 W/m 6,4 km/h (2 Bft) 97,87 %
31.03.2021 04:38 11,4 C 10,6 C 7,8 C 63 % 1024,3 hPa 0,0 l/m 0 min 0 min 0 W/m 16,1 km/h (3 Bft) 97,87 %
31.03.2021 04:40 11,3 C 10,6 C 7,8 C 63 % 1024,2 hPa 0,0 l/m 0 min 0 min 0 W/m 6,4 km/h (2 Bft) 97,87 %
31.03.2021 04:42 11,3 C 10,0 C 7,8 C 63 % 1024,1 hPa 0,0 l/m 0 min 0 min 0 W/m 6,4 km/h (2 Bft) 95,74 %
31.03.2021 04:44 11,3 C 10,0 C 7,8 C 63 % 1024,1 hPa 0,0 l/m 0 min 0 min 0 W/m 6,4 km/h (2 Bft) 97,83 %
31.03.2021 04:46 11,3 C 10,0 C 7,3 C 63 % 1024,1 hPa 0,0 l/m 0 min 0 min 0 W/m 6,4 km/h (2 Bft) 97,87 %
31.03.2021 04:48 11,2 C 10,0 C 7,3 C 63 % 1024,2 hPa 0,0 l/m 0 min 0 min 0 W/m 0,0 km/h (0 Bft) 95,74 %
31.03.2021 04:50 11,2 C 10,0 C 7,3 C 63 % 1024,1 hPa 0,0 l/m 0 min 0 min 0 W/m 0,0 km/h (0 Bft) 97,87 %
31.03.2021 04:52 11,1 C 10,0 C 7,3 C 64 % 1024,2 hPa 0,0 l/m 0 min 0 min 0 W/m 0,0 km/h (0 Bft) 97,87 %
31.03.2021 04:54 11,1 C 10,0 C 7,3 C 64 % 1024,2 hPa 0,0 l/m 0 min 0 min 0 W/m 0,0 km/h (0 Bft) 97,87 %
31.03.2021 04:56 11,1 C 10,0 C 7,3 C 64 % 1024,2 hPa 0,0 l/m 0 min 0 min 0 W/m 0,0 km/h (0 Bft) 97,83 %
31.03.2021 04:58 11,0 C 10,0 C 7,3 C 64 % 1024,2 hPa 0,0 l/m 0 min 0 min 0 W/m 0,0 km/h (0 Bft) 97,87 %
31.03.2021 05:00 11,0 C 10,0 C 7,3 C 64 % 1024,1 hPa 0,0 l/m 0 min 0 min 0 W/m 0,0 km/h (0 Bft) 100,00 %
31.03.2021 05:02 11,0 C 10,0 C 7,3 C 64 % 1024,1 hPa 0,0 l/m 0 min 0 min 0 W/m 6,4 km/h (2 Bft) 97,87 %
31.03.2021 05:04 11,0 C 10,0 C 7,3 C 64 % 1024,1 hPa 0,0 l/m 0 min 0 min 0 W/m 12,9 km/h (3 Bft) 100,00 %
31.03.2021 05:06 10,9 C 10,0 C 7,3 C 64 % 1024,1 hPa 0,0 l/m 0 min 0 min 0 W/m 6,4 km/h (2 Bft) 100,00 %
31.03.2021 05:08 10,9 C 10,0 C 7,3 C 64 % 1024,1 hPa 0,0 l/m 0 min 0 min 0 W/m 12,9 km/h (3 Bft) 100,00 %
31.03.2021 05:10 10,9 C 10,0 C 7,3 C 64 % 1024,1 hPa 0,0 l/m 0 min 0 min 0 W/m 6,4 km/h (2 Bft) 100,00 %
31.03.2021 05:12 10,8 C 10,0 C 7,3 C 65 % 1024,1 hPa 0,0 l/m 0 min 0 min 0 W/m 9,7 km/h (2 Bft) 100,00 %
31.03.2021 05:14 10,8 C 9,4 C 7,3 C 65 % 1024,0 hPa 0,0 l/m 0 min 0 min 0 W/m 3,2 km/h (1 Bft) 100,00 %
31.03.2021 05:16 10,8 C 9,4 C 7,3 C 65 % 1024,0 hPa 0,0 l/m 0 min 0 min 0 W/m 3,2 km/h (1 Bft) 97,87 %
31.03.2021 05:18 10,8 C 9,4 C 7,3 C 65 % 1024,0 hPa 0,0 l/m 0 min 0 min 0 W/m 6,4 km/h (2 Bft) 95,74 %
31.03.2021 05:20 10,8 C 9,4 C 7,3 C 65 % 1024,0 hPa 0,0 l/m 0 min 0 min 0 W/m 6,4 km/h (2 Bft) 97,87 %
31.03.2021 05:22 10,7 C 9,4 C 7,3 C 65 % 1024,0 hPa 0,0 l/m 0 min 0 min 0 W/m 9,7 km/h (2 Bft) 97,83 %
31.03.2021 05:24 10,7 C 9,4 C 7,3 C 65 % 1024,0 hPa 0,0 l/m 0 min 0 min 0 W/m 6,4 km/h (2 Bft) 95,74 %
31.03.2021 05:26 10,6 C 9,4 C 7,3 C 65 % 1024,0 hPa 0,0 l/m 0 min 0 min 0 W/m 3,2 km/h (1 Bft) 97,87 %
31.03.2021 05:28 10,6 C 9,4 C 7,3 C 65 % 1024,0 hPa 0,0 l/m 0 min 0 min 0 W/m 6,4 km/h (2 Bft) 95,74 %
31.03.2021 05:30 10,6 C 10,0 C 7,3 C 65 % 1024,0 hPa 0,0 l/m 0 min 0 min 0 W/m 12,9 km/h (3 Bft) 97,87 %
31.03.2021 05:32 10,6 C 10,0 C 7,3 C 65 % 1023,9 hPa 0,0 l/m 0 min 0 min 0 W/m 12,9 km/h (3 Bft) 97,87 %
31.03.2021 05:34 10,6 C 10,0 C 7,3 C 65 % 1023,9 hPa 0,0 l/m 0 min 0 min 0 W/m 6,4 km/h (2 Bft) 97,87 %
31.03.2021 05:36 10,6 C 10,0 C 7,3 C 65 % 1023,9 hPa 0,0 l/m 0 min 0 min 0 W/m 6,4 km/h (2 Bft) 97,87 %
31.03.2021 05:38 10,6 C 10,0 C 7,3 C 65 % 1024,0 hPa 0,0 l/m 0 min 0 min 0 W/m 6,4 km/h (2 Bft) 97,87 %
31.03.2021 05:40 10,6 C 10,0 C 7,3 C 65 % 1023,9 hPa 0,0 l/m 0 min 0 min 0 W/m 6,4 km/h (2 Bft) 97,87 %
31.03.2021 05:42 10,6 C 10,0 C 7,3 C 65 % 1023,9 hPa 0,0 l/m 0 min 0 min 0 W/m 12,9 km/h (3 Bft) 93,62 %
31.03.2021 05:44 10,6 C 9,4 C 7,3 C 65 % 1023,9 hPa 0,0 l/m 0 min 0 min 0 W/m 6,4 km/h (2 Bft) 97,83 %
31.03.2021 05:46 10,6 C 9,4 C 7,3 C 65 % 1023,9 hPa 0,0 l/m 0 min 0 min 0 W/m 6,4 km/h (2 Bft) 97,87 %
31.03.2021 05:48 10,5 C 9,4 C 7,3 C 65 % 1023,9 hPa 0,0 l/m 0 min 0 min 0 W/m 3,2 km/h (1 Bft) 95,74 %
31.03.2021 05:50 10,5 C 9,4 C 7,3 C 65 % 1023,9 hPa 0,0 l/m 0 min 0 min 0 W/m 3,2 km/h (1 Bft) 97,87 %
31.03.2021 05:52 10,5 C 9,4 C 6,7 C 65 % 1023,9 hPa 0,0 l/m 0 min 0 min 0 W/m 3,2 km/h (1 Bft) 97,87 %
31.03.2021 05:54 10,5 C 9,4 C 6,7 C 65 % 1023,8 hPa 0,0 l/m 0 min 0 min 0 W/m 6,4 km/h (2 Bft) 97,87 %
31.03.2021 05:56 10,5 C 9,4 C 6,7 C 66 % 1023,9 hPa 0,0 l/m 0 min 0 min 0 W/m 6,4 km/h (2 Bft) 97,83 %
31.03.2021 05:58 10,5 C 9,4 C 6,7 C 66 % 1023,9 hPa 0,0 l/m 0 min 0 min 0 W/m 6,4 km/h (2 Bft) 97,87 %
31.03.2021 06:00 10,5 C 9,4 C 6,7 C 66 % 1023,9 hPa 0,0 l/m 0 min 0 min 0 W/m 6,4 km/h (2 Bft) 95,74 %
31.03.2021 06:02 10,4 C 9,4 C 6,7 C 66 % 1023,9 hPa 0,0 l/m 0 min 0 min 0 W/m 3,2 km/h (1 Bft) 97,92 %
31.03.2021 06:04 10,4 C 9,4 C 6,7 C 66 % 1023,9 hPa 0,0 l/m 0 min 0 min 0 W/m 3,2 km/h (1 Bft) 97,92 %
31.03.2021 06:08 10,4 C 9,4 C 6,7 C 66 % 1023,9 hPa 0,0 l/m 0 min 0 min 0 W/m 6,4 km/h (2 Bft) 97,62 %
31.03.2021 06:10 10,4 C 9,4 C 6,7 C 66 % 1023,9 hPa 0,0 l/m 0 min 0 min 0 W/m 3,2 km/h (1 Bft) 100,00 %
31.03.2021 06:12 10,3 C 8,9 C 6,7 C 66 % 1023,9 hPa 0,0 l/m 0 min 0 min 0 W/m 12,9 km/h (3 Bft) 100,00 %
31.03.2021 06:14 10,3 C 8,9 C 6,7 C 66 % 1023,9 hPa 0,0 l/m 0 min 0 min 0 W/m 6,4 km/h (2 Bft) 100,00 %
31.03.2021 06:16 10,3 C 8,9 C 6,7 C 66 % 1023,9 hPa 0,0 l/m 0 min 0 min 0 W/m 6,4 km/h (2 Bft) 100,00 %
31.03.2021 06:18 10,3 C 8,9 C 6,7 C 66 % 1023,9 hPa 0,0 l/m 0 min 0 min 0 W/m 6,4 km/h (2 Bft) 100,00 %
31.03.2021 06:20 10,2 C 8,9 C 6,7 C 66 % 1023,9 hPa 0,0 l/m 0 min 0 min 0 W/m 6,4 km/h (2 Bft) 100,00 %
31.03.2021 06:22 10,2 C 8,9 C 6,7 C 66 % 1023,9 hPa 0,0 l/m 0 min 0 min 0 W/m 6,4 km/h (2 Bft) 97,30 %
31.03.2021 06:24 10,1 C 8,9 C 6,7 C 66 % 1023,9 hPa 0,0 l/m 0 min 0 min 0 W/m 6,4 km/h (2 Bft) 100,00 %
31.03.2021 06:26 10,1 C 8,9 C 6,7 C 66 % 1023,9 hPa 0,0 l/m 0 min 0 min 0 W/m 6,4 km/h (2 Bft) 100,00 %
31.03.2021 06:28 10,1 C 8,9 C 6,7 C 67 % 1023,8 hPa 0,0 l/m 0 min 0 min 0 W/m 6,4 km/h (2 Bft) 100,00 %
31.03.2021 06:30 10,1 C 8,9 C 6,7 C 67 % 1023,8 hPa 0,0 l/m 0 min 0 min 0 W/m 6,4 km/h (2 Bft) 96,30 %
31.03.2021 06:32 10,0 C 8,9 C 6,7 C 67 % 1023,8 hPa 0,0 l/m 0 min 0 min 0 W/m 6,4 km/h (2 Bft) 97,87 %
31.03.2021 06:34 10,0 C 8,9 C 6,7 C 67 % 1023,8 hPa 0,0 l/m 0 min 0 min 0 W/m 6,4 km/h (2 Bft) 97,87 %
31.03.2021 06:36 10,0 C 8,9 C 6,7 C 67 % 1023,8 hPa 0,0 l/m 0 min 0 min 0 W/m 6,4 km/h (2 Bft) 97,87 %
31.03.2021 06:38 10,0 C 8,9 C 6,7 C 67 % 1023,7 hPa 0,0 l/m 0 min 0 min 0 W/m 6,4 km/h (2 Bft) 97,87 %
31.03.2021 06:40 10,0 C 8,9 C 6,7 C 67 % 1023,8 hPa 0,0 l/m 0 min 0 min 0 W/m 12,9 km/h (3 Bft) 95,92 %
31.03.2021 06:42 10,0 C 8,9 C 6,7 C 67 % 1023,8 hPa 0,0 l/m 0 min 0 min 0 W/m 12,9 km/h (3 Bft) 97,30 %
31.03.2021 06:44 9,9 C 8,9 C 6,7 C 67 % 1023,8 hPa 0,0 l/m 0 min 0 min 0 W/m 3,2 km/h (1 Bft) 95,74 %
31.03.2021 06:46 9,9 C 8,9 C 6,7 C 67 % 1023,8 hPa 0,0 l/m 0 min 0 min 0 W/m 9,7 km/h (2 Bft) 94,23 %
31.03.2021 06:48 9,9 C 8,9 C 6,7 C 67 % 1023,7 hPa 0,0 l/m 0 min 0 min 0 W/m 12,9 km/h (3 Bft) 91,84 %
31.03.2021 06:50 9,9 C 8,9 C 6,7 C 67 % 1023,8 hPa 0,0 l/m 0 min 0 min 0 W/m 12,9 km/h (3 Bft) 95,83 %
31.03.2021 06:52 9,9 C 8,9 C 6,7 C 67 % 1023,8 hPa 0,0 l/m 0 min 0 min 0 W/m 12,9 km/h (3 Bft) 97,30 %
31.03.2021 06:54 9,9 C 8,9 C 6,7 C 67 % 1023,7 hPa 0,0 l/m 0 min 0 min 0 W/m 6,4 km/h (2 Bft) 93,88 %
31.03.2021 06:56 9,9 C 8,9 C 6,7 C 67 % 1023,7 hPa 0,0 l/m 0 min 0 min 0 W/m 6,4 km/h (2 Bft) 95,83 %
31.03.2021 06:58 9,9 C 8,9 C 6,7 C 67 % 1023,7 hPa 0,0 l/m 0 min 0 min 0 W/m 6,4 km/h (2 Bft) 95,74 %
31.03.2021 07:00 9,9 C 8,9 C 6,7 C 67 % 1023,7 hPa 0,0 l/m 0 min 0 min 0 W/m 6,4 km/h (2 Bft) 96,23 %
31.03.2021 07:02 9,9 C 8,9 C 6,7 C 67 % 1023,7 hPa 0,0 l/m 0 min 0 min 0 W/m 6,4 km/h (2 Bft) 94,74 %
31.03.2021 07:04 9,8 C 8,9 C 6,7 C 67 % 1023,7 hPa 0,0 l/m 0 min 0 min 0 W/m 12,9 km/h (3 Bft) 95,83 %
31.03.2021 07:06 9,8 C 8,9 C 6,1 C 67 % 1023,7 hPa 0,0 l/m 0 min 0 min 0 W/m 12,9 km/h (3 Bft) 95,83 %
31.03.2021 07:08 9,8 C 8,9 C 6,1 C 67 % 1023,7 hPa 0,0 l/m 0 min 0 min 0 W/m 9,7 km/h (2 Bft) 95,74 %
31.03.2021 07:10 9,8 C 8,9 C 6,7 C 67 % 1023,7 hPa 0,0 l/m 0 min 0 min 0 W/m 16,1 km/h (3 Bft) 95,74 %
31.03.2021 07:12 9,8 C 8,9 C 6,7 C 67 % 1023,7 hPa 0,0 l/m 0 min 0 min 0 W/m 6,4 km/h (2 Bft) 93,18 %
31.03.2021 07:14 9,8 C 8,9 C 6,7 C 68 % 1023,7 hPa 0,0 l/m 0 min 0 min 5 W/m 6,4 km/h (2 Bft) 97,96 %
31.03.2021 07:16 9,8 C 8,9 C 6,7 C 68 % 1023,7 hPa 0,0 l/m 0 min 0 min 5 W/m 3,2 km/h (1 Bft) 95,83 %
31.03.2021 07:18 9,8 C 8,9 C 6,1 C 68 % 1023,7 hPa 0,0 l/m 0 min 0 min 6 W/m 3,2 km/h (1 Bft) 95,74 %
31.03.2021 07:20 9,8 C 8,9 C 6,1 C 68 % 1023,7 hPa 0,0 l/m 0 min 0 min 7 W/m 6,4 km/h (2 Bft) 95,65 %
31.03.2021 07:22 9,8 C 8,9 C 6,1 C 68 % 1023,7 hPa 0,0 l/m 0 min 0 min 8 W/m 6,4 km/h (2 Bft) 97,87 %
31.03.2021 07:24 9,8 C 8,9 C 6,1 C 68 % 1023,8 hPa 0,0 l/m 0 min 0 min 9 W/m 6,4 km/h (2 Bft) 97,67 %
31.03.2021 07:26 9,8 C 8,9 C 6,1 C 68 % 1023,7 hPa 0,0 l/m 0 min 0 min 10 W/m 6,4 km/h (2 Bft) 100,00 %
31.03.2021 07:28 9,7 C 8,9 C 6,1 C 68 % 1023,8 hPa 0,0 l/m 0 min 0 min 11 W/m 6,4 km/h (2 Bft) 95,92 %
31.03.2021 07:30 9,7 C 8,9 C 6,1 C 68 % 1023,7 hPa 0,0 l/m 0 min 0 min 11 W/m 3,2 km/h (1 Bft) 97,92 %
31.03.2021 07:32 9,7 C 8,9 C 6,1 C 68 % 1023,7 hPa 0,0 l/m 0 min 0 min 12 W/m 12,9 km/h (3 Bft) 97,92 %
31.03.2021 07:34 9,7 C 8,9 C 6,7 C 68 % 1023,7 hPa 0,0 l/m 0 min 0 min 14 W/m 6,4 km/h (2 Bft) 100,00 %
31.03.2021 07:36 9,7 C 8,9 C 6,7 C 68 % 1023,7 hPa 0,0 l/m 0 min 0 min 14 W/m 9,7 km/h (2 Bft) 97,87 %
31.03.2021 07:38 9,7 C 8,9 C 6,7 C 68 % 1023,7 hPa 0,0 l/m 0 min 0 min 15 W/m 12,9 km/h (3 Bft) 94,44 %
31.03.2021 07:40 9,7 C 8,9 C 6,7 C 68 % 1023,7 hPa 0,0 l/m 0 min 0 min 16 W/m 12,9 km/h (3 Bft) 97,96 %
31.03.2021 07:42 9,7 C 8,9 C 6,7 C 68 % 1023,6 hPa 0,0 l/m 0 min 0 min 18 W/m 12,9 km/h (3 Bft) 97,92 %
31.03.2021 07:44 9,7 C 9,4 C 6,7 C 68 % 1023,7 hPa 0,0 l/m 0 min 0 min 18 W/m 12,9 km/h (3 Bft) 95,83 %
31.03.2021 07:46 9,7 C 9,4 C 6,7 C 68 % 1023,6 hPa 0,0 l/m 0 min 0 min 19 W/m 12,9 km/h (3 Bft) 100,00 %
31.03.2021 07:48 9,8 C 9,4 C 6,7 C 68 % 1023,6 hPa 0,0 l/m 0 min 0 min 19 W/m 12,9 km/h (3 Bft) 97,87 %
31.03.2021 07:50 9,8 C 9,4 C 6,7 C 68 % 1023,6 hPa 0,0 l/m 0 min 0 min 20 W/m 12,9 km/h (3 Bft) 100,00 %
31.03.2021 07:52 9,8 C 9,4 C 6,7 C 68 % 1023,6 hPa 0,0 l/m 0 min 0 min 21 W/m 12,9 km/h (3 Bft) 100,00 %
31.03.2021 07:54 9,8 C 9,4 C 6,7 C 68 % 1023,6 hPa 0,0 l/m 0 min 0 min 22 W/m 12,9 km/h (3 Bft) 97,83 %
31.03.2021 07:56 9,8 C 9,4 C 6,7 C 68 % 1023,6 hPa 0,0 l/m 0 min 0 min 23 W/m 12,9 km/h (3 Bft) 100,00 %
31.03.2021 07:58 9,8 C 9,4 C 6,7 C 68 % 1023,6 hPa 0,0 l/m 0 min 0 min 23 W/m 16,1 km/h (3 Bft) 97,14 %
31.03.2021 08:00 9,8 C 9,4 C 6,7 C 68 % 1023,7 hPa 0,0 l/m 0 min 0 min 25 W/m 12,9 km/h (3 Bft) 98,15 %
31.03.2021 08:02 9,8 C 9,4 C 6,7 C 68 % 1023,6 hPa 0,0 l/m 0 min 0 min 25 W/m 16,1 km/h (3 Bft) 97,92 %
31.03.2021 08:04 9,9 C 9,4 C 6,7 C 68 % 1023,6 hPa 0,0 l/m 0 min 0 min 26 W/m 12,9 km/h (3 Bft) 100,00 %
31.03.2021 08:06 9,9 C 9,4 C 6,7 C 68 % 1023,6 hPa 0,0 l/m 0 min 0 min 26 W/m 6,4 km/h (2 Bft) 100,00 %
31.03.2021 08:08 9,9 C 9,4 C 6,7 C 68 % 1023,6 hPa 0,0 l/m 0 min 0 min 26 W/m 12,9 km/h (3 Bft) 97,96 %
31.03.2021 08:10 9,9 C 9,4 C 6,7 C 68 % 1023,6 hPa 0,0 l/m 0 min 0 min 28 W/m 12,9 km/h (3 Bft) 100,00 %
31.03.2021 08:12 9,9 C 9,4 C 6,7 C 68 % 1023,6 hPa 0,0 l/m 0 min 0 min 28 W/m 12,9 km/h (3 Bft) 100,00 %
31.03.2021 08:14 9,9 C 9,4 C 6,7 C 68 % 1023,6 hPa 0,0 l/m 0 min 0 min 28 W/m 12,9 km/h (3 Bft) 100,00 %
31.03.2021 08:16 10,0 C 9,4 C 6,7 C 68 % 1023,6 hPa 0,0 l/m 0 min 0 min 30 W/m 16,1 km/h (3 Bft) 100,00 %
31.03.2021 08:18 10,0 C 9,4 C 7,3 C 68 % 1023,6 hPa 0,0 l/m 0 min 0 min 30 W/m 12,9 km/h (3 Bft) 97,92 %
31.03.2021 08:20 10,0 C 10,0 C 7,3 C 68 % 1023,6 hPa 0,0 l/m 0 min 0 min 31 W/m 12,9 km/h (3 Bft) 97,87 %
31.03.2021 08:22 10,0 C 10,0 C 7,3 C 68 % 1023,7 hPa 0,0 l/m 0 min 0 min 32 W/m 16,1 km/h (3 Bft) 100,00 %
31.03.2021 08:24 10,1 C 10,0 C 7,3 C 68 % 1023,6 hPa 0,0 l/m 0 min 0 min 32 W/m 12,9 km/h (3 Bft) 96,30 %
31.03.2021 08:26 10,1 C 10,0 C 7,3 C 68 % 1023,6 hPa 0,0 l/m 0 min 0 min 33 W/m 12,9 km/h (3 Bft) 97,92 %
31.03.2021 08:28 10,1 C 10,0 C 7,3 C 68 % 1023,6 hPa 0,0 l/m 0 min 0 min 33 W/m 6,4 km/h (2 Bft) 97,96 %
31.03.2021 08:30 10,2 C 10,0 C 7,3 C 68 % 1023,7 hPa 0,0 l/m 0 min 0 min 33 W/m 12,9 km/h (3 Bft) 97,92 %
31.03.2021 08:32 10,3 C 10,0 C 7,3 C 68 % 1023,7 hPa 0,0 l/m 0 min 0 min 34 W/m 16,1 km/h (3 Bft) 97,22 %
31.03.2021 08:34 10,3 C 10,0 C 7,3 C 68 % 1023,6 hPa 0,0 l/m 0 min 0 min 35 W/m 12,9 km/h (3 Bft) 98,11 %
31.03.2021 08:36 10,3 C 10,0 C 7,3 C 68 % 1023,6 hPa 0,0 l/m 0 min 0 min 35 W/m 12,9 km/h (3 Bft) 97,96 %
31.03.2021 08:38 10,4 C 10,0 C 7,3 C 68 % 1023,5 hPa 0,0 l/m 0 min 0 min 36 W/m 12,9 km/h (3 Bft) 96,00 %
31.03.2021 08:40 10,4 C 10,6 C 7,3 C 68 % 1023,5 hPa 0,0 l/m 0 min 0 min 37 W/m 12,9 km/h (3 Bft) 97,14 %
31.03.2021 08:42 10,5 C 10,6 C 7,8 C 67 % 1023,5 hPa 0,0 l/m 0 min 0 min 37 W/m 16,1 km/h (3 Bft) 98,15 %
31.03.2021 08:44 10,5 C 10,6 C 7,8 C 67 % 1023,5 hPa 0,0 l/m 0 min 0 min 38 W/m 6,4 km/h (2 Bft) 97,87 %
31.03.2021 08:46 10,6 C 10,6 C 7,8 C 67 % 1023,5 hPa 0,0 l/m 0 min 0 min 39 W/m 16,1 km/h (3 Bft) 97,92 %
31.03.2021 08:48 10,7 C 10,6 C 7,8 C 67 % 1023,5 hPa 0,0 l/m 0 min 0 min 39 W/m 9,7 km/h (2 Bft) 97,96 %
31.03.2021 08:50 10,8 C 10,6 C 7,8 C 67 % 1023,5 hPa 0,0 l/m 0 min 0 min 39 W/m 6,4 km/h (2 Bft) 97,92 %
31.03.2021 08:52 10,8 C 10,6 C 7,8 C 67 % 1023,5 hPa 0,0 l/m 0 min 0 min 40 W/m 12,9 km/h (3 Bft) 97,14 %
31.03.2021 08:54 10,9 C 10,6 C 7,8 C 67 % 1023,5 hPa 0,0 l/m 0 min 0 min 40 W/m 12,9 km/h (3 Bft) 93,62 %
31.03.2021 08:56 10,9 C 11,1 C 7,8 C 67 % 1023,5 hPa 0,0 l/m 0 min 0 min 41 W/m 12,9 km/h (3 Bft) 96,15 %
31.03.2021 08:58 11,0 C 11,1 C 8,4 C 67 % 1023,5 hPa 0,0 l/m 0 min 0 min 42 W/m 16,1 km/h (3 Bft) 95,83 %
31.03.2021 09:00 11,1 C 11,1 C 8,4 C 67 % 1023,5 hPa 0,0 l/m 0 min 0 min 42 W/m 12,9 km/h (3 Bft) 97,92 %
31.03.2021 09:02 11,1 C 11,1 C 8,4 C 67 % 1023,5 hPa 0,0 l/m 0 min 0 min 42 W/m 6,4 km/h (2 Bft) 97,92 %
31.03.2021 09:04 11,2 C 11,1 C 8,4 C 67 % 1023,5 hPa 0,0 l/m 0 min 0 min 44 W/m 16,1 km/h (3 Bft) 97,92 %
31.03.2021 09:06 11,3 C 11,1 C 8,4 C 67 % 1023,4 hPa 0,0 l/m 0 min 0 min 44 W/m 19,3 km/h (3 Bft) 97,83 %
31.03.2021 09:08 11,4 C 11,7 C 8,4 C 67 % 1023,4 hPa 0,0 l/m 0 min 0 min 44 W/m 19,3 km/h (3 Bft) 97,96 %
31.03.2021 09:10 11,4 C 11,7 C 8,4 C 66 % 1023,4 hPa 0,0 l/m 0 min 0 min 46 W/m 12,9 km/h (3 Bft) 100,00 %
31.03.2021 09:12 11,5 C 11,7 C 8,4 C 66 % 1023,4 hPa 0,0 l/m 0 min 0 min 46 W/m 9,7 km/h (2 Bft) 94,44 %
31.03.2021 09:14 11,5 C 11,7 C 8,4 C 66 % 1023,4 hPa 0,0 l/m 0 min 0 min 46 W/m 16,1 km/h (3 Bft) 75,00 %
31.03.2021 09:16 11,7 C 11,7 C 8,9 C 66 % 1023,4 hPa 0,0 l/m 0 min 0 min 110 W/m 19,3 km/h (3 Bft) 80,00 %
31.03.2021 09:18 11,8 C 11,7 C 8,9 C 66 % 1023,3 hPa 0,0 l/m 2 min 0 min 280 W/m 12,9 km/h (3 Bft) 97,92 %
31.03.2021 09:20 11,9 C 11,7 C 8,9 C 66 % 1023,4 hPa 0,0 l/m 2 min 0 min 304 W/m 6,4 km/h (2 Bft) 93,75 %
31.03.2021 09:22 11,9 C 12,2 C 8,9 C 66 % 1023,3 hPa 0,0 l/m 2 min 0 min 309 W/m 16,1 km/h (3 Bft) 97,14 %
31.03.2021 09:24 12,0 C 12,2 C 8,9 C 66 % 1023,3 hPa 0,0 l/m 2 min 0 min 315 W/m 6,4 km/h (2 Bft) 93,62 %
31.03.2021 09:26 12,1 C 12,2 C 8,9 C 66 % 1023,3 hPa 0,0 l/m 2 min 0 min 322 W/m 12,9 km/h (3 Bft) 98,18 %
31.03.2021 09:28 12,3 C 12,8 C 9,5 C 66 % 1023,3 hPa 0,0 l/m 2 min 0 min 328 W/m 16,1 km/h (3 Bft) 97,92 %
31.03.2021 09:30 12,4 C 13,9 C 9,5 C 66 % 1023,3 hPa 0,0 l/m 2 min 0 min 334 W/m 12,9 km/h (3 Bft) 97,87 %
31.03.2021 09:32 12,6 C 14,4 C 9,5 C 65 % 1023,3 hPa 0,0 l/m 2 min 0 min 341 W/m 16,1 km/h (3 Bft) 97,96 %
31.03.2021 09:34 12,8 C 15,6 C 9,5 C 64 % 1023,3 hPa 0,0 l/m 2 min 0 min 347 W/m 19,3 km/h (3 Bft) 97,87 %
31.03.2021 09:36 13,0 C 15,6 C 9,5 C 64 % 1023,3 hPa 0,0 l/m 2 min 0 min 352 W/m 16,1 km/h (3 Bft) 93,62 %
31.03.2021 09:38 13,1 C 16,1 C 9,5 C 63 % 1023,3 hPa 0,0 l/m 2 min 0 min 358 W/m 12,9 km/h (3 Bft) 100,00 %
31.03.2021 09:40 13,4 C 16,1 C 10,0 C 63 % 1023,3 hPa 0,0 l/m 2 min 0 min 363 W/m 19,3 km/h (3 Bft) 95,92 %
31.03.2021 09:42 13,5 C 16,1 C 10,0 C 63 % 1023,2 hPa 0,0 l/m 2 min 0 min 369 W/m 19,3 km/h (3 Bft) 97,83 %
31.03.2021 09:44 13,7 C 16,1 C 10,0 C 62 % 1023,3 hPa 0,0 l/m 2 min 0 min 375 W/m 19,3 km/h (3 Bft) 97,92 %
31.03.2021 09:46 13,9 C 16,1 C 10,6 C 62 % 1023,2 hPa 0,0 l/m 2 min 0 min 381 W/m 9,7 km/h (2 Bft) 97,96 %
31.03.2021 09:48 14,0 C 16,1 C 10,6 C 62 % 1023,2 hPa 0,0 l/m 2 min 0 min 387 W/m 12,9 km/h (3 Bft) 95,74 %
31.03.2021 09:50 14,2 C 15,6 C 11,1 C 61 % 1023,3 hPa 0,0 l/m 2 min 0 min 393 W/m 16,1 km/h (3 Bft) 97,14 %
31.03.2021 09:52 14,2 C 15,6 C 11,7 C 61 % 1023,3 hPa 0,0 l/m 2 min 0 min 399 W/m 16,1 km/h (3 Bft) 98,18 %
31.03.2021 09:54 14,4 C 15,6 C 12,3 C 60 % 1023,3 hPa 0,0 l/m 2 min 0 min 405 W/m 12,9 km/h (3 Bft) 97,92 %
31.03.2021 09:56 14,5 C 15,6 C 12,8 C 60 % 1023,3 hPa 0,0 l/m 2 min 0 min 410 W/m 16,1 km/h (3 Bft) 97,92 %
31.03.2021 09:58 14,7 C 16,7 C 13,4 C 60 % 1023,3 hPa 0,0 l/m 2 min 0 min 415 W/m 16,1 km/h (3 Bft) 95,83 %
31.03.2021 10:00 14,9 C 17,2 C 13,9 C 60 % 1023,3 hPa 0,0 l/m 2 min 0 min 421 W/m 19,3 km/h (3 Bft) 97,96 %
31.03.2021 10:02 15,0 C 18,3 C 15,0 C 60 % 1023,3 hPa 0,0 l/m 2 min 0 min 426 W/m 12,9 km/h (3 Bft) 97,22 %
31.03.2021 10:04 15,1 C 18,9 C 15,6 C 60 % 1023,3 hPa 0,0 l/m 2 min 0 min 432 W/m 12,9 km/h (3 Bft) 97,87 %
31.03.2021 10:06 15,3 C 20,0 C 15,6 C 60 % 1023,3 hPa 0,0 l/m 2 min 0 min 437 W/m 12,9 km/h (3 Bft) 97,87 %
31.03.2021 10:08 15,4 C 20,0 C 16,7 C 60 % 1023,3 hPa 0,0 l/m 2 min 0 min 444 W/m 6,4 km/h (2 Bft) 92,59 %
31.03.2021 10:10 15,5 C 20,0 C 17,3 C 59 % 1023,3 hPa 0,0 l/m 2 min 0 min 450 W/m 16,1 km/h (3 Bft) 97,96 %
31.03.2021 10:12 15,6 C 20,0 C 17,8 C 59 % 1023,3 hPa 0,0 l/m 2 min 0 min 455 W/m 12,9 km/h (3 Bft) 100,00 %
31.03.2021 10:14 15,8 C 20,6 C 17,8 C 59 % 1023,4 hPa 0,0 l/m 2 min 0 min 380 W/m 16,1 km/h (3 Bft) 91,49 %
31.03.2021 10:16 15,9 C 20,6 C 18,9 C 58 % 1023,3 hPa 0,0 l/m 2 min 0 min 404 W/m 12,9 km/h (3 Bft) 95,74 %
31.03.2021 10:18 16,0 C 20,6 C 19,5 C 58 % 1023,3 hPa 0,0 l/m 2 min 0 min 468 W/m 12,9 km/h (3 Bft) 95,65 %
31.03.2021 10:20 16,1 C 20,6 C 19,5 C 58 % 1023,3 hPa 0,0 l/m 2 min 0 min 473 W/m 12,9 km/h (3 Bft) 96,30 %
31.03.2021 10:22 16,3 C 20,6 C 18,9 C 57 % 1023,4 hPa 0,0 l/m 2 min 0 min 478 W/m 16,1 km/h (3 Bft) 95,00 %
31.03.2021 10:24 16,4 C 20,0 C 18,9 C 56 % 1023,4 hPa 0,0 l/m 2 min 0 min 483 W/m 19,3 km/h (3 Bft) 95,74 %
31.03.2021 10:26 16,5 C 20,0 C 18,4 C 56 % 1023,3 hPa 0,0 l/m 2 min 0 min 488 W/m 12,9 km/h (3 Bft) 96,30 %
31.03.2021 10:28 16,6 C 20,6 C 18,4 C 57 % 1023,4 hPa 0,0 l/m 2 min 0 min 463 W/m 12,9 km/h (3 Bft) 97,87 %
31.03.2021 10:30 16,7 C 20,6 C 17,8 C 56 % 1023,3 hPa 0,0 l/m 2 min 0 min 434 W/m 16,1 km/h (3 Bft) 95,83 %
31.03.2021 10:32 16,8 C 20,0 C 17,3 C 56 % 1023,4 hPa 0,0 l/m 2 min 0 min 409 W/m 16,1 km/h (3 Bft) 96,00 %
31.03.2021 10:34 16,9 C 20,6 C 17,3 C 56 % 1023,3 hPa 0,0 l/m 2 min 0 min 336 W/m 16,1 km/h (3 Bft) 94,29 %
31.03.2021 10:36 17,0 C 20,6 C 17,8 C 56 % 1023,3 hPa 0,0 l/m 2 min 0 min 264 W/m 12,9 km/h (3 Bft) 95,74 %
31.03.2021 10:38 17,1 C 20,6 C 18,9 C 56 % 1023,3 hPa 0,0 l/m 2 min 0 min 319 W/m 12,9 km/h (3 Bft) 95,74 %
31.03.2021 10:40 17,1 C 21,1 C 18,9 C 55 % 1023,2 hPa 0,0 l/m 0 min 0 min 204 W/m 6,4 km/h (2 Bft) 96,30 %
31.03.2021 10:42 17,3 C 20,6 C 20,0 C 55 % 1023,2 hPa 0,0 l/m 2 min 0 min 367 W/m 12,9 km/h (3 Bft) 97,96 %
31.03.2021 10:44 17,4 C 21,1 C 20,0 C 55 % 1023,2 hPa 0,0 l/m 2 min 0 min 418 W/m 6,4 km/h (2 Bft) 97,96 %
31.03.2021 10:46 17,4 C 20,6 C 20,6 C 55 % 1023,2 hPa 0,0 l/m 2 min 0 min 350 W/m 19,3 km/h (3 Bft) 97,30 %
31.03.2021 10:48 17,5 C 20,0 C 20,6 C 55 % 1023,2 hPa 0,0 l/m 2 min 0 min 415 W/m 16,1 km/h (3 Bft) 97,92 %
31.03.2021 10:50 17,5 C 20,0 C 19,5 C 55 % 1023,2 hPa 0,0 l/m 2 min 0 min 540 W/m 16,1 km/h (3 Bft) 95,74 %
31.03.2021 10:52 17,6 C 19,4 C 19,5 C 54 % 1023,2 hPa 0,0 l/m 2 min 0 min 445 W/m 16,1 km/h (3 Bft) 95,74 %
31.03.2021 10:54 17,6 C 19,4 C 20,0 C 54 % 1023,2 hPa 0,0 l/m 2 min 0 min 534 W/m 12,9 km/h (3 Bft) 94,34 %
31.03.2021 10:56 17,6 C 19,4 C 20,0 C 53 % 1023,2 hPa 0,0 l/m 2 min 0 min 435 W/m 19,3 km/h (3 Bft) 95,74 %
31.03.2021 10:58 17,7 C 19,4 C 19,5 C 53 % 1023,2 hPa 0,0 l/m 0 min 0 min 251 W/m 16,1 km/h (3 Bft) 95,83 %
31.03.2021 11:00 17,8 C 19,4 C 18,9 C 53 % 1023,2 hPa 0,0 l/m 2 min 0 min 378 W/m 12,9 km/h (3 Bft) 95,74 %
31.03.2021 11:02 17,9 C 19,4 C 17,8 C 53 % 1023,2 hPa 0,0 l/m 2 min 0 min 334 W/m 12,9 km/h (3 Bft) 94,59 %
31.03.2021 11:04 17,9 C 20,0 C 18,4 C 53 % 1023,2 hPa 0,0 l/m 2 min 0 min 380 W/m 6,4 km/h (2 Bft) 97,96 %
31.03.2021 11:06 18,0 C 20,0 C 17,8 C 53 % 1023,2 hPa 0,0 l/m 2 min 0 min 424 W/m 12,9 km/h (3 Bft) 97,83 %
31.03.2021 11:08 18,1 C 20,0 C 18,4 C 53 % 1023,1 hPa 0,0 l/m 2 min 0 min 536 W/m 19,3 km/h (3 Bft) 97,87 %
31.03.2021 11:10 18,1 C 20,0 C 17,8 C 53 % 1023,1 hPa 0,0 l/m 2 min 0 min 502 W/m 12,9 km/h (3 Bft) 97,87 %
31.03.2021 11:12 18,3 C 20,6 C 17,8 C 52 % 1023,1 hPa 0,0 l/m 2 min 0 min 461 W/m 19,3 km/h (3 Bft) 95,74 %
31.03.2021 11:14 18,4 C 21,1 C 17,8 C 52 % 1023,0 hPa 0,0 l/m 2 min 0 min 596 W/m 16,1 km/h (3 Bft) 95,74 %
31.03.2021 11:16 18,5 C 20,6 C 18,9 C 51 % 1023,0 hPa 0,0 l/m 2 min 0 min 604 W/m 19,3 km/h (3 Bft) 97,87 %
31.03.2021 11:18 18,6 C 20,6 C 19,5 C 51 % 1023,0 hPa 0,0 l/m 2 min 0 min 609 W/m 12,9 km/h (3 Bft) 97,83 %
31.03.2021 11:20 18,7 C 21,1 C 20,0 C 51 % 1023,0 hPa 0,0 l/m 2 min 0 min 613 W/m 6,4 km/h (2 Bft) 98,15 %
31.03.2021 11:22 18,8 C 21,7 C 21,1 C 51 % 1023,0 hPa 0,0 l/m 2 min 0 min 615 W/m 12,9 km/h (3 Bft) 97,92 %
31.03.2021 11:24 18,9 C 21,7 C 21,1 C 51 % 1023,0 hPa 0,0 l/m 2 min 0 min 542 W/m 9,7 km/h (2 Bft) 97,37 %
31.03.2021 11:26 19,0 C 22,2 C 21,7 C 51 % 1023,0 hPa 0,0 l/m 2 min 0 min 531 W/m 12,9 km/h (3 Bft) 97,92 %
31.03.2021 11:28 19,1 C 21,7 C 22,3 C 51 % 1022,9 hPa 0,0 l/m 2 min 0 min 593 W/m 12,9 km/h (3 Bft) 95,83 %
31.03.2021 11:30 19,3 C 21,7 C 23,4 C 51 % 1023,0 hPa 0,0 l/m 2 min 0 min 524 W/m 12,9 km/h (3 Bft) 95,83 %
31.03.2021 11:32 19,4 C 21,7 C 23,9 C 50 % 1022,9 hPa 0,0 l/m 2 min 0 min 520 W/m 12,9 km/h (3 Bft) 97,87 %
31.03.2021 11:34 19,5 C 22,2 C 25,0 C 50 % 1022,9 hPa 0,0 l/m 2 min 0 min 510 W/m 9,7 km/h (2 Bft) 100,00 %
31.03.2021 11:36 19,6 C 22,2 C 25,6 C 49 % 1023,0 hPa 0,0 l/m 2 min 0 min 452 W/m 12,9 km/h (3 Bft) 97,87 %
31.03.2021 11:38 19,8 C 22,2 C 25,6 C 50 % 1022,9 hPa 0,0 l/m 2 min 0 min 471 W/m 12,9 km/h (3 Bft) 97,87 %
31.03.2021 11:40 19,9 C 22,8 C 26,7 C 49 % 1022,9 hPa 0,0 l/m 2 min 0 min 568 W/m 6,4 km/h (2 Bft) 97,62 %
31.03.2021 11:42 20,0 C 22,8 C 27,3 C 49 % 1022,9 hPa 0,0 l/m 2 min 0 min 614 W/m 16,1 km/h (3 Bft) 100,00 %
31.03.2021 11:44 20,1 C 23,3 C 27,3 C 48 % 1022,9 hPa 0,0 l/m 2 min 0 min 655 W/m 16,1 km/h (3 Bft) 100,00 %
31.03.2021 11:46 20,2 C 23,3 C 27,8 C 48 % 1022,9 hPa 0,0 l/m 2 min 0 min 660 W/m 19,3 km/h (3 Bft) 100,00 %
31.03.2021 11:48 20,3 C 23,9 C 28,4 C 48 % 1022,9 hPa 0,0 l/m 2 min 0 min 662 W/m 12,9 km/h (3 Bft) 97,87 %
31.03.2021 11:50 20,4 C 24,4 C 28,9 C 48 % 1022,9 hPa 0,0 l/m 2 min 0 min 666 W/m 12,9 km/h (3 Bft) 100,00 %
31.03.2021 11:52 20,5 C 23,9 C 28,4 C 48 % 1022,9 hPa 0,0 l/m 2 min 0 min 670 W/m 12,9 km/h (3 Bft) 100,00 %
31.03.2021 11:54 20,6 C 24,4 C 29,5 C 47 % 1022,8 hPa 0,0 l/m 2 min 0 min 673 W/m 12,9 km/h (3 Bft) 100,00 %
31.03.2021 11:56 20,7 C 25,0 C 29,5 C 47 % 1022,8 hPa 0,0 l/m 2 min 0 min 677 W/m 12,9 km/h (3 Bft) 100,00 %
31.03.2021 11:58 20,8 C 25,0 C 30,0 C 48 % 1022,8 hPa 0,0 l/m 2 min 0 min 681 W/m 12,9 km/h (3 Bft) 100,00 %
31.03.2021 12:00 20,9 C 25,6 C 29,5 C 47 % 1022,8 hPa 0,0 l/m 2 min 0 min 684 W/m 16,1 km/h (3 Bft) 100,00 %
31.03.2021 12:02 21,0 C 25,0 C 29,5 C 48 % 1022,7 hPa 0,0 l/m 2 min 0 min 686 W/m 16,1 km/h (3 Bft) 100,00 %
31.03.2021 12:04 21,2 C 25,6 C 29,5 C 47 % 1022,8 hPa 0,0 l/m 2 min 0 min 688 W/m 12,9 km/h (3 Bft) 100,00 %
31.03.2021 12:08 21,4 C 25,0 C 29,5 C 46 % 1022,8 hPa 0,0 l/m 4 min 0 min 693 W/m 16,1 km/h (3 Bft) 98,94 %
31.03.2021 12:10 21,5 C 25,0 C 30,0 C 46 % 1022,7 hPa 0,0 l/m 2 min 0 min 697 W/m 6,4 km/h (2 Bft) 100,00 %
31.03.2021 12:12 21,7 C 25,6 C 30,0 C 46 % 1022,7 hPa 0,0 l/m 2 min 0 min 700 W/m 6,4 km/h (2 Bft) 100,00 %
31.03.2021 12:14 21,9 C 26,7 C 30,0 C 46 % 1022,7 hPa 0,0 l/m 2 min 0 min 702 W/m 6,4 km/h (2 Bft) 100,00 %
31.03.2021 12:16 22,0 C 26,7 C 30,0 C 46 % 1022,6 hPa 0,0 l/m 2 min 0 min 705 W/m 12,9 km/h (3 Bft) 100,00 %
31.03.2021 12:18 22,1 C 26,7 C 30,0 C 46 % 1022,6 hPa 0,0 l/m 2 min 0 min 707 W/m 6,4 km/h (2 Bft) 100,00 %
31.03.2021 12:20 22,1 C 26,7 C 30,0 C 46 % 1022,6 hPa 0,0 l/m 2 min 0 min 710 W/m 12,9 km/h (3 Bft) 100,00 %
31.03.2021 12:22 22,3 C 26,7 C 30,0 C 45 % 1022,6 hPa 0,0 l/m 2 min 0 min 712 W/m 12,9 km/h (3 Bft) 100,00 %
31.03.2021 12:24 22,4 C 27,2 C 31,7 C 45 % 1022,6 hPa 0,0 l/m 2 min 0 min 715 W/m 6,4 km/h (2 Bft) 100,00 %
31.03.2021 12:26 22,4 C 27,8 C 32,3 C 44 % 1022,6 hPa 0,0 l/m 2 min 0 min 717 W/m 12,9 km/h (3 Bft) 100,00 %
31.03.2021 12:28 22,5 C 28,3 C 32,3 C 44 % 1022,5 hPa 0,0 l/m 2 min 0 min 718 W/m 9,7 km/h (2 Bft) 100,00 %
31.03.2021 12:30 22,6 C 27,2 C 31,7 C 43 % 1022,5 hPa 0,0 l/m 2 min 0 min 720 W/m 12,9 km/h (3 Bft) 98,15 %
31.03.2021 12:32 22,8 C 27,2 C 31,1 C 42 % 1022,5 hPa 0,0 l/m 2 min 0 min 723 W/m 12,9 km/h (3 Bft) 100,00 %
31.03.2021 12:34 22,8 C 27,2 C 31,7 C 42 % 1022,5 hPa 0,0 l/m 2 min 0 min 727 W/m 9,7 km/h (2 Bft) 100,00 %
31.03.2021 12:36 22,8 C 27,8 C 32,8 C 41 % 1022,5 hPa 0,0 l/m 2 min 0 min 729 W/m 12,9 km/h (3 Bft) 100,00 %
31.03.2021 12:38 22,9 C 28,9 C 32,8 C 42 % 1022,5 hPa 0,0 l/m 2 min 0 min 730 W/m 6,4 km/h (2 Bft) 100,00 %
31.03.2021 12:40 23,0 C 27,8 C 32,3 C 41 % 1022,4 hPa 0,0 l/m 2 min 0 min 730 W/m 12,9 km/h (3 Bft) 100,00 %
31.03.2021 12:42 23,0 C 29,4 C 32,3 C 41 % 1022,4 hPa 0,0 l/m 2 min 0 min 731 W/m 3,2 km/h (1 Bft) 100,00 %
31.03.2021 12:44 23,1 C 29,4 C 32,8 C 42 % 1022,5 hPa 0,0 l/m 2 min 0 min 733 W/m 6,4 km/h (2 Bft) 100,00 %
31.03.2021 12:46 23,2 C 29,4 C 32,8 C 42 % 1022,4 hPa 0,0 l/m 2 min 0 min 734 W/m 12,9 km/h (3 Bft) 100,00 %
31.03.2021 12:48 23,3 C 29,4 C 33,9 C 42 % 1022,4 hPa 0,0 l/m 2 min 0 min 736 W/m 6,4 km/h (2 Bft) 100,00 %
31.03.2021 12:50 23,4 C 29,4 C 33,9 C 42 % 1022,4 hPa 0,0 l/m 2 min 0 min 739 W/m 3,2 km/h (1 Bft) 100,00 %
31.03.2021 12:52 23,4 C 28,9 C 33,4 C 42 % 1022,4 hPa 0,0 l/m 2 min 0 min 741 W/m 12,9 km/h (3 Bft) 97,83 %
31.03.2021 12:54 23,5 C 28,9 C 32,3 C 42 % 1022,3 hPa 0,0 l/m 2 min 0 min 742 W/m 9,7 km/h (2 Bft) 97,92 %
31.03.2021 12:56 23,6 C 28,3 C 30,6 C 41 % 1022,3 hPa 0,0 l/m 2 min 0 min 744 W/m 12,9 km/h (3 Bft) 100,00 %
31.03.2021 12:58 23,6 C 28,3 C 28,9 C 41 % 1022,3 hPa 0,0 l/m 2 min 0 min 744 W/m 6,4 km/h (2 Bft) 100,00 %
31.03.2021 13:00 23,7 C 27,8 C 27,8 C 41 % 1022,3 hPa 0,0 l/m 2 min 0 min 745 W/m 9,7 km/h (2 Bft) 100,00 %
31.03.2021 13:02 23,8 C 28,3 C 27,3 C 41 % 1022,2 hPa 0,0 l/m 2 min 0 min 746 W/m 12,9 km/h (3 Bft) 98,11 %
31.03.2021 13:04 23,9 C 28,3 C 26,7 C 40 % 1022,2 hPa 0,0 l/m 2 min 0 min 748 W/m 12,9 km/h (3 Bft) 100,00 %
31.03.2021 13:06 23,9 C 27,8 C 25,6 C 40 % 1022,2 hPa 0,0 l/m 2 min 0 min 750 W/m 12,9 km/h (3 Bft) 100,00 %
31.03.2021 13:08 24,0 C 28,3 C 24,5 C 40 % 1022,1 hPa 0,0 l/m 2 min 0 min 753 W/m 12,9 km/h (3 Bft) 100,00 %
31.03.2021 13:10 24,0 C 28,9 C 23,9 C 41 % 1022,1 hPa 0,0 l/m 2 min 0 min 752 W/m 12,9 km/h (3 Bft) 100,00 %
31.03.2021 13:12 24,1 C 28,9 C 23,4 C 40 % 1022,1 hPa 0,0 l/m 2 min 0 min 752 W/m 12,9 km/h (3 Bft) 97,92 %
31.03.2021 13:14 24,1 C 28,3 C 23,9 C 40 % 1022,0 hPa 0,0 l/m 2 min 0 min 751 W/m 12,9 km/h (3 Bft) 100,00 %
31.03.2021 13:16 24,1 C 28,9 C 23,9 C 41 % 1022,0 hPa 0,0 l/m 2 min 0 min 752 W/m 12,9 km/h (3 Bft) 100,00 %
31.03.2021 13:18 24,1 C 28,9 C 24,5 C 41 % 1022,0 hPa 0,0 l/m 2 min 0 min 752 W/m 6,4 km/h (2 Bft) 100,00 %
31.03.2021 13:20 24,1 C 28,9 C 25,0 C 41 % 1022,0 hPa 0,0 l/m 2 min 0 min 754 W/m 12,9 km/h (3 Bft) 100,00 %
31.03.2021 13:22 24,1 C 28,3 C 25,0 C 41 % 1022,0 hPa 0,0 l/m 2 min 0 min 755 W/m 16,1 km/h (3 Bft) 95,24 %
31.03.2021 13:24 24,2 C 28,9 C 26,1 C 41 % 1021,9 hPa 0,0 l/m 2 min 0 min 755 W/m 16,1 km/h (3 Bft) 96,08 %
31.03.2021 13:26 24,3 C 28,9 C 26,1 C 41 % 1021,9 hPa 0,0 l/m 2 min 0 min 756 W/m 12,9 km/h (3 Bft) 95,74 %
31.03.2021 13:28 24,3 C 27,8 C 25,6 C 41 % 1021,8 hPa 0,0 l/m 2 min 0 min 756 W/m 12,9 km/h (3 Bft) 95,74 %
31.03.2021 13:30 24,3 C 28,9 C 25,0 C 41 % 1021,8 hPa 0,0 l/m 2 min 0 min 757 W/m 9,7 km/h (2 Bft) 95,74 %
31.03.2021 13:32 24,4 C 29,4 C 25,0 C 40 % 1021,8 hPa 0,0 l/m 2 min 0 min 758 W/m 12,9 km/h (3 Bft) 92,45 %
31.03.2021 13:34 24,3 C 29,4 C 25,6 C 40 % 1021,8 hPa 0,0 l/m 2 min 0 min 757 W/m 12,9 km/h (3 Bft) 97,30 %
31.03.2021 13:36 24,4 C 29,4 C 26,1 C 40 % 1021,8 hPa 0,0 l/m 2 min 0 min 757 W/m 16,1 km/h (3 Bft) 95,74 %
31.03.2021 13:38 24,4 C 29,4 C 26,7 C 40 % 1021,7 hPa 0,0 l/m 2 min 0 min 758 W/m 6,4 km/h (2 Bft) 93,88 %
31.03.2021 13:40 24,5 C 30,0 C 26,1 C 41 % 1021,7 hPa 0,0 l/m 2 min 0 min 760 W/m 16,1 km/h (3 Bft) 95,74 %
31.03.2021 13:42 24,5 C 30,0 C 25,6 C 40 % 1021,7 hPa 0,0 l/m 2 min 0 min 758 W/m 12,9 km/h (3 Bft) 95,74 %
31.03.2021 13:44 24,6 C 30,6 C 25,0 C 40 % 1021,6 hPa 0,0 l/m 2 min 0 min 759 W/m 12,9 km/h (3 Bft) 95,83 %
31.03.2021 13:46 24,6 C 30,6 C 24,5 C 39 % 1021,6 hPa 0,0 l/m 2 min 0 min 759 W/m 9,7 km/h (2 Bft) 93,62 %
31.03.2021 13:48 24,8 C 30,6 C 23,9 C 40 % 1021,6 hPa 0,0 l/m 2 min 0 min 761 W/m 6,4 km/h (2 Bft) 95,74 %
31.03.2021 13:50 24,9 C 31,1 C 23,4 C 39 % 1021,5 hPa 0,0 l/m 2 min 0 min 763 W/m 9,7 km/h (2 Bft) 93,48 %
31.03.2021 13:52 25,0 C 31,1 C 23,4 C 39 % 1021,5 hPa 0,0 l/m 2 min 0 min 764 W/m 9,7 km/h (2 Bft) 95,35 %
31.03.2021 13:54 25,0 C 31,1 C 22,8 C 39 % 1021,5 hPa 0,0 l/m 2 min 0 min 764 W/m 12,9 km/h (3 Bft) 95,92 %
31.03.2021 13:56 25,1 C 30,6 C 22,8 C 39 % 1021,5 hPa 0,0 l/m 2 min 0 min 761 W/m 16,1 km/h (3 Bft) 95,92 %
31.03.2021 13:58 25,1 C 30,6 C 22,3 C 39 % 1021,4 hPa 0,0 l/m 2 min 0 min 758 W/m 16,1 km/h (3 Bft) 93,62 %
31.03.2021 14:00 25,1 C 30,6 C 22,3 C 39 % 1021,4 hPa 0,0 l/m 2 min 0 min 757 W/m 9,7 km/h (2 Bft) 93,62 %
31.03.2021 14:02 25,2 C 30,6 C 22,3 C 39 % 1021,4 hPa 0,0 l/m 2 min 0 min 758 W/m 12,9 km/h (3 Bft) 94,23 %
31.03.2021 14:04 25,3 C 30,6 C 22,3 C 39 % 1021,4 hPa 0,0 l/m 2 min 0 min 758 W/m 16,1 km/h (3 Bft) 95,24 %
31.03.2021 14:06 25,3 C 30,6 C 21,7 C 38 % 1021,4 hPa 0,0 l/m 2 min 0 min 757 W/m 9,7 km/h (2 Bft) 95,74 %
31.03.2021 14:08 25,3 C 30,6 C 21,7 C 39 % 1021,4 hPa 0,0 l/m 2 min 0 min 754 W/m 16,1 km/h (3 Bft) 95,74 %
31.03.2021 14:10 25,4 C 31,7 C 21,7 C 39 % 1021,3 hPa 0,0 l/m 2 min 0 min 754 W/m 3,2 km/h (1 Bft) 95,24 %
31.03.2021 14:12 25,5 C 32,2 C 21,7 C 39 % 1021,3 hPa 0,0 l/m 2 min 0 min 755 W/m 9,7 km/h (2 Bft) 95,92 %
31.03.2021 14:14 25,5 C 31,7 C 22,3 C 38 % 1021,3 hPa 0,0 l/m 2 min 0 min 754 W/m 16,1 km/h (3 Bft) 95,65 %
31.03.2021 14:16 25,6 C 31,1 C 22,3 C 37 % 1021,3 hPa 0,0 l/m 2 min 0 min 754 W/m 12,9 km/h (3 Bft) 97,96 %
31.03.2021 14:18 25,6 C 31,1 C 21,7 C 37 % 1021,3 hPa 0,0 l/m 2 min 0 min 752 W/m 6,4 km/h (2 Bft) 95,83 %
31.03.2021 14:20 25,6 C 31,7 C 21,7 C 38 % 1021,3 hPa 0,0 l/m 2 min 0 min 751 W/m 12,9 km/h (3 Bft) 97,87 %
31.03.2021 14:22 25,6 C 30,6 C 21,7 C 37 % 1021,3 hPa 0,0 l/m 2 min 0 min 751 W/m 19,3 km/h (3 Bft) 95,74 %
31.03.2021 14:24 25,7 C 30,6 C 21,7 C 37 % 1021,2 hPa 0,0 l/m 2 min 0 min 749 W/m 19,3 km/h (3 Bft) 97,83 %
31.03.2021 14:26 25,7 C 31,1 C 21,7 C 37 % 1021,2 hPa 0,0 l/m 2 min 0 min 745 W/m 12,9 km/h (3 Bft) 97,62 %
31.03.2021 14:28 25,8 C 31,1 C 21,7 C 38 % 1021,1 hPa 0,0 l/m 2 min 0 min 744 W/m 9,7 km/h (2 Bft) 95,83 %
31.03.2021 14:30 25,8 C 31,1 C 21,7 C 35 % 1021,1 hPa 0,0 l/m 2 min 0 min 744 W/m 19,3 km/h (3 Bft) 95,92 %
31.03.2021 14:32 25,8 C 31,7 C 21,7 C 36 % 1021,1 hPa 0,0 l/m 2 min 0 min 745 W/m 12,9 km/h (3 Bft) 97,96 %
31.03.2021 14:34 25,9 C 31,1 C 21,7 C 36 % 1021,0 hPa 0,0 l/m 2 min 0 min 743 W/m 12,9 km/h (3 Bft) 97,87 %
31.03.2021 14:36 25,9 C 31,7 C 22,3 C 36 % 1021,1 hPa 0,0 l/m 2 min 0 min 740 W/m 12,9 km/h (3 Bft) 97,87 %
31.03.2021 14:38 25,9 C 31,7 C 21,7 C 36 % 1021,0 hPa 0,0 l/m 2 min 0 min 739 W/m 6,4 km/h (2 Bft) 97,83 %
31.03.2021 14:40 26,0 C 31,7 C 21,7 C 36 % 1021,0 hPa 0,0 l/m 2 min 0 min 739 W/m 19,3 km/h (3 Bft) 97,62 %
31.03.2021 14:42 26,0 C 31,1 C 21,7 C 36 % 1021,0 hPa 0,0 l/m 2 min 0 min 733 W/m 16,1 km/h (3 Bft) 97,92 %
31.03.2021 14:44 26,0 C 31,1 C 21,7 C 37 % 1020,9 hPa 0,0 l/m 2 min 0 min 730 W/m 16,1 km/h (3 Bft) 97,96 %
31.03.2021 14:46 26,0 C 31,7 C 21,7 C 37 % 1020,9 hPa 0,0 l/m 2 min 0 min 726 W/m 12,9 km/h (3 Bft) 97,96 %
31.03.2021 14:48 26,0 C 31,1 C 21,7 C 37 % 1020,8 hPa 0,0 l/m 2 min 0 min 724 W/m 16,1 km/h (3 Bft) 95,65 %
31.03.2021 14:50 26,0 C 32,2 C 21,7 C 38 % 1020,8 hPa 0,0 l/m 2 min 0 min 722 W/m 6,4 km/h (2 Bft) 100,00 %
31.03.2021 14:52 26,1 C 31,7 C 21,7 C 37 % 1020,8 hPa 0,0 l/m 2 min 0 min 724 W/m 12,9 km/h (3 Bft) 100,00 %
31.03.2021 14:54 26,1 C 31,1 C 22,3 C 37 % 1020,8 hPa 0,0 l/m 2 min 0 min 719 W/m 16,1 km/h (3 Bft) 100,00 %
31.03.2021 14:56 26,1 C 31,1 C 22,3 C 37 % 1020,8 hPa 0,0 l/m 2 min 0 min 718 W/m 16,1 km/h (3 Bft) 100,00 %
31.03.2021 14:58 26,2 C 31,7 C 21,7 C 37 % 1020,7 hPa 0,0 l/m 2 min 0 min 718 W/m 9,7 km/h (2 Bft) 100,00 %
31.03.2021 15:00 26,2 C 32,2 C 22,3 C 37 % 1020,7 hPa 0,0 l/m 2 min 0 min 713 W/m 12,9 km/h (3 Bft) 97,83 %
31.03.2021 15:02 26,3 C 32,2 C 22,3 C 37 % 1020,6 hPa 0,0 l/m 2 min 0 min 711 W/m 9,7 km/h (2 Bft) 97,67 %
31.03.2021 15:04 26,3 C 31,7 C 22,3 C 37 % 1020,7 hPa 0,0 l/m 2 min 0 min 708 W/m 12,9 km/h (3 Bft) 100,00 %
31.03.2021 15:06 26,4 C 32,2 C 22,3 C 36 % 1020,6 hPa 0,0 l/m 2 min 0 min 706 W/m 12,9 km/h (3 Bft) 100,00 %
31.03.2021 15:08 26,4 C 32,2 C 22,3 C 36 % 1020,6 hPa 0,0 l/m 2 min 0 min 701 W/m 12,9 km/h (3 Bft) 100,00 %
31.03.2021 15:10 26,4 C 32,8 C 22,3 C 37 % 1020,6 hPa 0,0 l/m 2 min 0 min 698 W/m 16,1 km/h (3 Bft) 100,00 %
31.03.2021 15:12 26,4 C 32,2 C 22,3 C 37 % 1020,6 hPa 0,0 l/m 2 min 0 min 694 W/m 12,9 km/h (3 Bft) 100,00 %
31.03.2021 15:14 26,4 C 32,2 C 22,3 C 37 % 1020,6 hPa 0,0 l/m 2 min 0 min 689 W/m 12,9 km/h (3 Bft) 100,00 %
31.03.2021 15:16 26,5 C 32,2 C 22,3 C 36 % 1020,6 hPa 0,0 l/m 2 min 0 min 686 W/m 12,9 km/h (3 Bft) 100,00 %
31.03.2021 15:18 26,5 C 32,2 C 22,3 C 36 % 1020,6 hPa 0,0 l/m 2 min 0 min 683 W/m 9,7 km/h (2 Bft) 100,00 %
31.03.2021 15:20 26,5 C 32,8 C 22,3 C 36 % 1020,6 hPa 0,0 l/m 2 min 0 min 678 W/m 3,2 km/h (1 Bft) 100,00 %
31.03.2021 15:22 26,6 C 32,8 C 22,3 C 36 % 1020,5 hPa 0,0 l/m 2 min 0 min 678 W/m 6,4 km/h (2 Bft) 100,00 %
31.03.2021 15:24 26,7 C 32,8 C 22,3 C 36 % 1020,6 hPa 0,0 l/m 2 min 0 min 673 W/m 16,1 km/h (3 Bft) 100,00 %
31.03.2021 15:26 26,7 C 31,7 C 22,3 C 36 % 1020,5 hPa 0,0 l/m 2 min 0 min 671 W/m 19,3 km/h (3 Bft) 100,00 %
31.03.2021 15:28 26,7 C 32,2 C 22,3 C 36 % 1020,4 hPa 0,0 l/m 2 min 0 min 669 W/m 16,1 km/h (3 Bft) 98,11 %
31.03.2021 15:30 26,7 C 32,2 C 22,3 C 36 % 1020,5 hPa 0,0 l/m 2 min 0 min 669 W/m 12,9 km/h (3 Bft) 100,00 %
31.03.2021 15:32 26,8 C 32,8 C 22,3 C 36 % 1020,4 hPa 0,0 l/m 2 min 0 min 663 W/m 12,9 km/h (3 Bft) 97,83 %
31.03.2021 15:34 26,8 C 32,2 C 22,3 C 36 % 1020,4 hPa 0,0 l/m 2 min 0 min 658 W/m 16,1 km/h (3 Bft) 98,00 %
31.03.2021 15:36 26,8 C 32,2 C 22,3 C 36 % 1020,4 hPa 0,0 l/m 2 min 0 min 653 W/m 6,4 km/h (2 Bft) 100,00 %
31.03.2021 15:38 26,8 C 32,2 C 22,3 C 36 % 1020,4 hPa 0,0 l/m 2 min 0 min 649 W/m 12,9 km/h (3 Bft) 100,00 %
31.03.2021 15:40 26,8 C 32,8 C 22,3 C 37 % 1020,3 hPa 0,0 l/m 2 min 0 min 645 W/m 12,9 km/h (3 Bft) 100,00 %
31.03.2021 15:42 26,8 C 34,4 C 22,3 C 37 % 1020,3 hPa 0,0 l/m 2 min 0 min 642 W/m 6,4 km/h (2 Bft) 97,92 %
31.03.2021 15:44 26,8 C 34,4 C 22,3 C 37 % 1020,2 hPa 0,0 l/m 2 min 0 min 640 W/m 6,4 km/h (2 Bft) 95,83 %
31.03.2021 15:46 26,8 C 34,4 C 22,3 C 37 % 1020,2 hPa 0,0 l/m 2 min 0 min 638 W/m 6,4 km/h (2 Bft) 95,74 %
31.03.2021 15:48 26,8 C 33,9 C 22,3 C 37 % 1020,3 hPa 0,0 l/m 2 min 0 min 629 W/m 16,1 km/h (3 Bft) 97,92 %
31.03.2021 15:50 26,6 C 33,9 C 22,3 C 37 % 1020,3 hPa 0,0 l/m 2 min 0 min 624 W/m 12,9 km/h (3 Bft) 95,83 %
31.03.2021 15:52 26,6 C 33,9 C 22,3 C 37 % 1020,2 hPa 0,0 l/m 2 min 0 min 622 W/m 3,2 km/h (1 Bft) 95,74 %
31.03.2021 15:54 26,7 C 33,3 C 22,3 C 37 % 1020,1 hPa 0,0 l/m 2 min 0 min 615 W/m 16,1 km/h (3 Bft) 97,87 %
31.03.2021 15:56 26,7 C 33,9 C 22,3 C 37 % 1020,1 hPa 0,0 l/m 2 min 0 min 612 W/m 16,1 km/h (3 Bft) 94,29 %
31.03.2021 15:58 26,8 C 33,9 C 22,3 C 37 % 1020,1 hPa 0,0 l/m 2 min 0 min 612 W/m 9,7 km/h (2 Bft) 98,15 %
31.03.2021 16:00 26,8 C 34,4 C 22,3 C 37 % 1020,0 hPa 0,0 l/m 2 min 0 min 608 W/m 12,9 km/h (3 Bft) 97,92 %
31.03.2021 16:02 26,9 C 34,4 C 22,3 C 37 % 1020,0 hPa 0,0 l/m 2 min 0 min 604 W/m 9,7 km/h (2 Bft) 98,00 %
31.03.2021 16:04 26,9 C 34,4 C 22,3 C 37 % 1020,0 hPa 0,0 l/m 2 min 0 min 598 W/m 12,9 km/h (3 Bft) 97,87 %
31.03.2021 16:06 26,9 C 34,4 C 22,3 C 36 % 1020,0 hPa 0,0 l/m 2 min 0 min 589 W/m 12,9 km/h (3 Bft) 97,92 %
31.03.2021 16:08 26,8 C 34,4 C 22,3 C 37 % 1020,0 hPa 0,0 l/m 2 min 0 min 586 W/m 9,7 km/h (2 Bft) 95,83 %
31.03.2021 16:10 26,8 C 34,4 C 22,3 C 37 % 1020,0 hPa 0,0 l/m 2 min 0 min 580 W/m 16,1 km/h (3 Bft) 100,00 %
31.03.2021 16:12 26,8 C 34,4 C 22,8 C 37 % 1019,9 hPa 0,0 l/m 2 min 0 min 577 W/m 9,7 km/h (2 Bft) 93,62 %
31.03.2021 16:14 26,8 C 33,9 C 22,8 C 37 % 1019,9 hPa 0,0 l/m 2 min 0 min 573 W/m 16,1 km/h (3 Bft) 94,55 %
31.03.2021 16:16 26,9 C 33,3 C 22,3 C 37 % 1019,8 hPa 0,0 l/m 2 min 0 min 567 W/m 6,4 km/h (2 Bft) 95,83 %
31.03.2021 16:18 26,9 C 33,9 C 22,8 C 37 % 1019,8 hPa 0,0 l/m 2 min 0 min 560 W/m 9,7 km/h (2 Bft) 97,96 %
31.03.2021 16:20 26,9 C 33,3 C 22,3 C 37 % 1019,8 hPa 0,0 l/m 2 min 0 min 555 W/m 19,3 km/h (3 Bft) 97,14 %
31.03.2021 16:22 26,9 C 32,8 C 22,3 C 37 % 1019,8 hPa 0,0 l/m 2 min 0 min 548 W/m 12,9 km/h (3 Bft) 98,28 %
31.03.2021 16:24 26,9 C 32,2 C 22,3 C 37 % 1019,9 hPa 0,0 l/m 2 min 0 min 546 W/m 22,5 km/h (4 Bft) 100,00 %
31.03.2021 16:26 26,9 C 32,2 C 22,8 C 37 % 1019,9 hPa 0,0 l/m 2 min 0 min 540 W/m 16,1 km/h (3 Bft) 95,65 %
31.03.2021 16:28 26,9 C 32,8 C 22,8 C 37 % 1019,8 hPa 0,0 l/m 2 min 0 min 533 W/m 12,9 km/h (3 Bft) 100,00 %
31.03.2021 16:30 26,9 C 32,8 C 22,8 C 37 % 1019,8 hPa 0,0 l/m 2 min 0 min 528 W/m 12,9 km/h (3 Bft) 100,00 %
31.03.2021 16:32 26,9 C 33,9 C 22,8 C 37 % 1019,8 hPa 0,0 l/m 2 min 0 min 521 W/m 3,2 km/h (1 Bft) 100,00 %
31.03.2021 16:34 26,9 C 33,9 C 22,8 C 37 % 1019,8 hPa 0,0 l/m 2 min 0 min 518 W/m 6,4 km/h (2 Bft) 97,87 %
31.03.2021 16:36 26,9 C 34,4 C 23,4 C 38 % 1019,8 hPa 0,0 l/m 2 min 0 min 513 W/m 9,7 km/h (2 Bft) 100,00 %
31.03.2021 16:38 27,0 C 35,0 C 23,4 C 38 % 1019,8 hPa 0,0 l/m 2 min 0 min 508 W/m 6,4 km/h (2 Bft) 100,00 %
31.03.2021 16:40 27,0 C 33,9 C 23,4 C 38 % 1019,8 hPa 0,0 l/m 2 min 0 min 500 W/m 12,9 km/h (3 Bft) 97,87 %
31.03.2021 16:42 27,0 C 33,9 C 22,8 C 37 % 1019,8 hPa 0,0 l/m 2 min 0 min 496 W/m 12,9 km/h (3 Bft) 100,00 %
31.03.2021 16:44 27,0 C 32,8 C 22,8 C 37 % 1019,7 hPa 0,0 l/m 2 min 0 min 490 W/m 16,1 km/h (3 Bft) 100,00 %
31.03.2021 16:46 27,0 C 32,2 C 22,8 C 37 % 1019,7 hPa 0,0 l/m 2 min 0 min 482 W/m 16,1 km/h (3 Bft) 100,00 %
31.03.2021 16:48 26,9 C 32,2 C 22,8 C 37 % 1019,7 hPa 0,0 l/m 2 min 0 min 475 W/m 9,7 km/h (2 Bft) 98,28 %
31.03.2021 16:50 26,9 C 32,8 C 22,8 C 38 % 1019,7 hPa 0,0 l/m 2 min 0 min 472 W/m 12,9 km/h (3 Bft) 94,29 %
31.03.2021 16:52 26,9 C 32,2 C 22,8 C 38 % 1019,6 hPa 0,0 l/m 2 min 0 min 470 W/m 19,3 km/h (3 Bft) 97,87 %
31.03.2021 16:54 26,9 C 32,8 C 22,8 C 38 % 1019,6 hPa 0,0 l/m 2 min 0 min 464 W/m 9,7 km/h (2 Bft) 97,87 %
31.03.2021 16:56 26,8 C 32,2 C 22,8 C 38 % 1019,6 hPa 0,0 l/m 2 min 0 min 461 W/m 16,1 km/h (3 Bft) 98,31 %
31.03.2021 16:58 26,8 C 32,2 C 22,8 C 38 % 1019,6 hPa 0,0 l/m 2 min 0 min 459 W/m 12,9 km/h (3 Bft) 97,83 %
31.03.2021 17:00 26,8 C 32,2 C 22,8 C 38 % 1019,6 hPa 0,0 l/m 2 min 0 min 459 W/m 16,1 km/h (3 Bft) 95,74 %
31.03.2021 17:02 26,8 C 32,2 C 22,8 C 38 % 1019,6 hPa 0,0 l/m 2 min 0 min 455 W/m 9,7 km/h (2 Bft) 93,62 %
31.03.2021 17:04 26,7 C 32,2 C 22,3 C 38 % 1019,6 hPa 0,0 l/m 2 min 0 min 444 W/m 12,9 km/h (3 Bft) 97,14 %
31.03.2021 17:06 26,7 C 31,7 C 22,8 C 38 % 1019,5 hPa 0,0 l/m 2 min 0 min 436 W/m 16,1 km/h (3 Bft) 94,92 %
31.03.2021 17:08 26,7 C 31,7 C 22,3 C 39 % 1019,5 hPa 0,0 l/m 2 min 0 min 430 W/m 12,9 km/h (3 Bft) 95,74 %
31.03.2021 17:10 26,7 C 31,7 C 22,3 C 39 % 1019,5 hPa 0,0 l/m 2 min 0 min 423 W/m 12,9 km/h (3 Bft) 95,65 %
31.03.2021 17:12 26,6 C 31,7 C 22,3 C 38 % 1019,5 hPa 0,0 l/m 2 min 0 min 419 W/m 12,9 km/h (3 Bft) 93,62 %
31.03.2021 17:14 26,7 C 32,2 C 22,3 C 39 % 1019,5 hPa 0,0 l/m 2 min 0 min 413 W/m 12,9 km/h (3 Bft) 97,14 %
31.03.2021 17:16 26,7 C 32,8 C 22,3 C 39 % 1019,4 hPa 0,0 l/m 2 min 0 min 408 W/m 12,9 km/h (3 Bft) 95,74 %
31.03.2021 17:18 26,7 C 31,7 C 22,3 C 39 % 1019,4 hPa 0,0 l/m 2 min 0 min 401 W/m 12,9 km/h (3 Bft) 94,92 %
31.03.2021 17:20 26,7 C 31,1 C 22,3 C 39 % 1019,3 hPa 0,0 l/m 2 min 0 min 397 W/m 16,1 km/h (3 Bft) 94,29 %
31.03.2021 17:22 26,6 C 31,1 C 21,7 C 39 % 1019,4 hPa 0,0 l/m 2 min 0 min 392 W/m 12,9 km/h (3 Bft) 93,62 %
31.03.2021 17:24 26,6 C 31,1 C 21,7 C 39 % 1019,4 hPa 0,0 l/m 2 min 0 min 383 W/m 12,9 km/h (3 Bft) 95,74 %
31.03.2021 17:26 26,6 C 31,7 C 21,7 C 39 % 1019,3 hPa 0,0 l/m 2 min 0 min 377 W/m 9,7 km/h (2 Bft) 95,65 %
31.03.2021 17:28 26,6 C 31,1 C 21,7 C 39 % 1019,3 hPa 0,0 l/m 2 min 0 min 372 W/m 16,1 km/h (3 Bft) 93,62 %
31.03.2021 17:30 26,6 C 31,7 C 21,7 C 39 % 1019,3 hPa 0,0 l/m 2 min 0 min 368 W/m 9,7 km/h (2 Bft) 97,87 %
31.03.2021 17:32 26,5 C 31,1 C 22,3 C 39 % 1019,3 hPa 0,0 l/m 2 min 0 min 362 W/m 12,9 km/h (3 Bft) 95,74 %
31.03.2021 17:34 26,5 C 31,1 C 22,3 C 40 % 1019,2 hPa 0,0 l/m 2 min 0 min 358 W/m 12,9 km/h (3 Bft) 96,55 %
31.03.2021 17:36 26,5 C 31,1 C 22,3 C 40 % 1019,3 hPa 0,0 l/m 2 min 0 min 352 W/m 12,9 km/h (3 Bft) 95,74 %
31.03.2021 17:38 26,5 C 32,2 C 22,3 C 40 % 1019,3 hPa 0,0 l/m 2 min 0 min 347 W/m 6,4 km/h (2 Bft) 95,35 %
31.03.2021 17:40 26,6 C 32,2 C 22,3 C 40 % 1019,2 hPa 0,0 l/m 2 min 0 min 342 W/m 9,7 km/h (2 Bft) 95,74 %
31.03.2021 17:42 26,6 C 31,7 C 22,3 C 39 % 1019,3 hPa 0,0 l/m 2 min 0 min 332 W/m 9,7 km/h (2 Bft) 95,74 %
31.03.2021 17:44 26,6 C 31,7 C 22,3 C 39 % 1019,3 hPa 0,0 l/m 2 min 0 min 328 W/m 6,4 km/h (2 Bft) 95,74 %
31.03.2021 17:46 26,6 C 31,7 C 22,3 C 39 % 1019,3 hPa 0,0 l/m 2 min 0 min 322 W/m 12,9 km/h (3 Bft) 95,65 %
31.03.2021 17:48 26,6 C 31,7 C 22,3 C 40 % 1019,3 hPa 0,0 l/m 2 min 0 min 316 W/m 6,4 km/h (2 Bft) 97,87 %
31.03.2021 17:50 26,6 C 31,7 C 22,3 C 40 % 1019,3 hPa 0,0 l/m 2 min 0 min 311 W/m 6,4 km/h (2 Bft) 97,87 %
31.03.2021 17:52 26,6 C 31,7 C 22,3 C 40 % 1019,2 hPa 0,0 l/m 2 min 0 min 304 W/m 9,7 km/h (2 Bft) 95,74 %
31.03.2021 17:54 26,5 C 31,1 C 22,3 C 39 % 1019,2 hPa 0,0 l/m 2 min 0 min 298 W/m 12,9 km/h (3 Bft) 97,87 %
31.03.2021 17:56 26,5 C 30,6 C 22,3 C 39 % 1019,2 hPa 0,0 l/m 2 min 0 min 292 W/m 12,9 km/h (3 Bft) 97,87 %
31.03.2021 17:58 26,5 C 30,0 C 22,3 C 39 % 1019,2 hPa 0,0 l/m 2 min 0 min 286 W/m 12,9 km/h (3 Bft) 97,83 %
31.03.2021 18:00 26,4 C 30,0 C 22,3 C 39 % 1019,2 hPa 0,0 l/m 2 min 0 min 279 W/m 6,4 km/h (2 Bft) 97,87 %
31.03.2021 18:02 26,4 C 30,6 C 21,7 C 39 % 1019,2 hPa 0,0 l/m 2 min 0 min 272 W/m 12,9 km/h (3 Bft) 100,00 %
31.03.2021 18:04 26,4 C 30,0 C 21,7 C 39 % 1019,2 hPa 0,0 l/m 2 min 0 min 266 W/m 6,4 km/h (2 Bft) 100,00 %
31.03.2021 18:08 26,3 C 29,4 C 21,7 C 40 % 1019,1 hPa 0,0 l/m 4 min 0 min 257 W/m 12,9 km/h (3 Bft) 96,84 %
31.03.2021 18:10 26,2 C 30,0 C 22,3 C 40 % 1019,1 hPa 0,0 l/m 2 min 0 min 248 W/m 6,4 km/h (2 Bft) 97,83 %
31.03.2021 18:12 26,1 C 30,0 C 22,3 C 40 % 1019,1 hPa 0,0 l/m 2 min 0 min 241 W/m 12,9 km/h (3 Bft) 95,74 %
31.03.2021 18:14 26,0 C 30,0 C 21,7 C 39 % 1019,1 hPa 0,0 l/m 2 min 0 min 237 W/m 6,4 km/h (2 Bft) 97,87 %
31.03.2021 18:16 26,0 C 29,4 C 21,7 C 39 % 1019,1 hPa 0,0 l/m 2 min 0 min 229 W/m 6,4 km/h (2 Bft) 97,87 %
31.03.2021 18:18 25,9 C 30,0 C 21,7 C 39 % 1019,1 hPa 0,0 l/m 2 min 0 min 223 W/m 9,7 km/h (2 Bft) 97,87 %
31.03.2021 18:20 25,9 C 30,6 C 21,7 C 40 % 1019,1 hPa 0,0 l/m 2 min 0 min 215 W/m 6,4 km/h (2 Bft) 95,74 %
31.03.2021 18:22 25,8 C 30,0 C 21,7 C 38 % 1019,0 hPa 0,0 l/m 2 min 0 min 207 W/m 9,7 km/h (2 Bft) 97,83 %
31.03.2021 18:24 25,8 C 30,6 C 21,7 C 40 % 1019,0 hPa 0,0 l/m 2 min 0 min 202 W/m 3,2 km/h (1 Bft) 97,87 %
31.03.2021 18:26 25,9 C 30,6 C 21,1 C 40 % 1019,1 hPa 0,0 l/m 2 min 0 min 196 W/m 6,4 km/h (2 Bft) 95,74 %
31.03.2021 18:28 25,9 C 30,6 C 21,7 C 39 % 1019,1 hPa 0,0 l/m 2 min 0 min 188 W/m 3,2 km/h (1 Bft) 97,87 %
31.03.2021 18:30 26,0 C 30,6 C 21,7 C 40 % 1019,0 hPa 0,0 l/m 2 min 0 min 181 W/m 3,2 km/h (1 Bft) 97,87 %
31.03.2021 18:32 26,0 C 30,6 C 21,7 C 40 % 1019,0 hPa 0,0 l/m 2 min 0 min 176 W/m 6,4 km/h (2 Bft) 97,92 %
31.03.2021 18:34 26,1 C 30,0 C 21,1 C 41 % 1019,0 hPa 0,0 l/m 2 min 0 min 169 W/m 3,2 km/h (1 Bft) 95,65 %
31.03.2021 18:36 26,1 C 29,4 C 21,1 C 40 % 1019,1 hPa 0,0 l/m 2 min 0 min 163 W/m 6,4 km/h (2 Bft) 95,74 %
31.03.2021 18:38 26,1 C 29,4 C 21,1 C 41 % 1019,1 hPa 0,0 l/m 2 min 0 min 154 W/m 3,2 km/h (1 Bft) 97,87 %
31.03.2021 18:40 26,1 C 29,4 C 21,1 C 41 % 1019,1 hPa 0,0 l/m 2 min 0 min 147 W/m 6,4 km/h (2 Bft) 97,22 %
31.03.2021 18:42 26,1 C 28,9 C 21,1 C 41 % 1019,1 hPa 0,0 l/m 2 min 0 min 142 W/m 3,2 km/h (1 Bft) 97,87 %
31.03.2021 18:44 26,1 C 28,9 C 21,1 C 42 % 1019,1 hPa 0,0 l/m 2 min 0 min 136 W/m 3,2 km/h (1 Bft) 96,49 %
31.03.2021 18:46 26,0 C 28,3 C 21,1 C 42 % 1019,1 hPa 0,0 l/m 2 min 0 min 129 W/m 6,4 km/h (2 Bft) 97,83 %
31.03.2021 18:48 26,0 C 28,3 C 21,1 C 42 % 1019,0 hPa 0,0 l/m 2 min 0 min 126 W/m 3,2 km/h (1 Bft) 95,74 %
31.03.2021 18:50 26,0 C 27,8 C 20,6 C 42 % 1019,0 hPa 0,0 l/m 2 min 0 min 118 W/m 6,4 km/h (2 Bft) 97,87 %
31.03.2021 18:52 25,9 C 27,8 C 20,6 C 41 % 1019,0 hPa 0,0 l/m 2 min 0 min 112 W/m 6,4 km/h (2 Bft) 100,00 %
31.03.2021 18:54 25,9 C 27,2 C 20,6 C 41 % 1019,0 hPa 0,0 l/m 2 min 0 min 105 W/m 3,2 km/h (1 Bft) 100,00 %
31.03.2021 18:56 25,8 C 27,2 C 20,6 C 41 % 1019,1 hPa 0,0 l/m 2 min 0 min 99 W/m 3,2 km/h (1 Bft) 100,00 %
31.03.2021 18:58 25,7 C 26,1 C 20,6 C 41 % 1019,0 hPa 0,0 l/m 2 min 0 min 93 W/m 6,4 km/h (2 Bft) 97,92 %
31.03.2021 19:00 25,6 C 25,6 C 20,0 C 41 % 1019,1 hPa 0,0 l/m 0 min 0 min 77 W/m 6,4 km/h (2 Bft) 100,00 %
31.03.2021 19:02 25,5 C 25,0 C 20,0 C 41 % 1019,1 hPa 0,0 l/m 0 min 0 min 48 W/m 3,2 km/h (1 Bft) 100,00 %
31.03.2021 19:04 25,4 C 24,4 C 20,0 C 41 % 1019,0 hPa 0,0 l/m 0 min 0 min 46 W/m 3,2 km/h (1 Bft) 100,00 %
31.03.2021 19:06 25,4 C 23,9 C 19,5 C 41 % 1019,1 hPa 0,0 l/m 0 min 0 min 44 W/m 6,4 km/h (2 Bft) 97,87 %
31.03.2021 19:08 25,3 C 23,3 C 19,5 C 43 % 1019,0 hPa 0,0 l/m 0 min 0 min 43 W/m 3,2 km/h (1 Bft) 100,00 %
31.03.2021 19:10 25,2 C 23,3 C 19,5 C 43 % 1019,0 hPa 0,0 l/m 0 min 0 min 42 W/m 3,2 km/h (1 Bft) 100,00 %
31.03.2021 19:12 25,1 C 22,8 C 18,9 C 43 % 1019,1 hPa 0,0 l/m 0 min 0 min 40 W/m 3,2 km/h (1 Bft) 100,00 %
31.03.2021 19:14 25,1 C 22,8 C 18,4 C 43 % 1019,1 hPa 0,0 l/m 0 min 0 min 39 W/m 3,2 km/h (1 Bft) 100,00 %
31.03.2021 19:16 25,0 C 22,8 C 18,4 C 43 % 1019,1 hPa 0,0 l/m 0 min 0 min 38 W/m 6,4 km/h (2 Bft) 100,00 %
31.03.2021 19:18 25,0 C 22,2 C 17,8 C 43 % 1019,0 hPa 0,0 l/m 0 min 0 min 36 W/m 3,2 km/h (1 Bft) 100,00 %
31.03.2021 19:20 24,9 C 22,2 C 17,8 C 43 % 1019,1 hPa 0,0 l/m 0 min 0 min 35 W/m 0,0 km/h (0 Bft) 100,00 %
31.03.2021 19:22 24,9 C 22,2 C 17,8 C 43 % 1019,1 hPa 0,0 l/m 0 min 0 min 34 W/m 0,0 km/h (0 Bft) 100,00 %
31.03.2021 19:24 24,8 C 21,7 C 17,3 C 44 % 1019,0 hPa 0,0 l/m 0 min 0 min 32 W/m 0,0 km/h (0 Bft) 100,00 %
31.03.2021 19:26 24,7 C 21,7 C 17,3 C 45 % 1019,0 hPa 0,0 l/m 0 min 0 min 31 W/m 0,0 km/h (0 Bft) 97,87 %
31.03.2021 19:28 24,6 C 21,7 C 17,3 C 45 % 1019,0 hPa 0,0 l/m 0 min 0 min 29 W/m 3,2 km/h (1 Bft) 100,00 %
31.03.2021 19:30 24,5 C 21,1 C 16,7 C 45 % 1019,0 hPa 0,0 l/m 0 min 0 min 27 W/m 3,2 km/h (1 Bft) 100,00 %
31.03.2021 19:32 24,4 C 21,1 C 16,7 C 45 % 1019,0 hPa 0,0 l/m 0 min 0 min 26 W/m 3,2 km/h (1 Bft) 100,00 %
31.03.2021 19:34 24,4 C 21,1 C 16,7 C 45 % 1018,9 hPa 0,0 l/m 0 min 0 min 25 W/m 0,0 km/h (0 Bft) 100,00 %
31.03.2021 19:36 24,3 C 21,1 C 16,1 C 45 % 1019,0 hPa 0,0 l/m 0 min 0 min 23 W/m 0,0 km/h (0 Bft) 100,00 %
31.03.2021 19:38 24,1 C 21,1 C 16,1 C 44 % 1019,0 hPa 0,0 l/m 0 min 0 min 22 W/m 3,2 km/h (1 Bft) 97,87 %
31.03.2021 19:40 24,0 C 20,6 C 16,1 C 45 % 1019,0 hPa 0,0 l/m 0 min 0 min 20 W/m 0,0 km/h (0 Bft) 100,00 %
31.03.2021 19:42 23,9 C 20,6 C 16,1 C 45 % 1019,0 hPa 0,0 l/m 0 min 0 min 19 W/m 0,0 km/h (0 Bft) 98,18 %
31.03.2021 19:44 23,9 C 20,6 C 15,6 C 46 % 1019,0 hPa 0,0 l/m 0 min 0 min 18 W/m 0,0 km/h (0 Bft) 100,00 %
31.03.2021 19:46 23,8 C 20,0 C 15,6 C 48 % 1019,0 hPa 0,0 l/m 0 min 0 min 16 W/m 0,0 km/h (0 Bft) 97,87 %
31.03.2021 19:48 23,6 C 20,0 C 15,6 C 48 % 1019,0 hPa 0,0 l/m 0 min 0 min 14 W/m 0,0 km/h (0 Bft) 100,00 %
31.03.2021 19:50 23,5 C 20,0 C 15,6 C 49 % 1019,0 hPa 0,0 l/m 0 min 0 min 12 W/m 0,0 km/h (0 Bft) 100,00 %
31.03.2021 19:52 23,4 C 20,0 C 15,6 C 48 % 1019,0 hPa 0,0 l/m 0 min 0 min 11 W/m 0,0 km/h (0 Bft) 100,00 %
31.03.2021 19:54 23,3 C 19,4 C 15,0 C 49 % 1019,0 hPa 0,0 l/m 0 min 0 min 10 W/m 0,0 km/h (0 Bft) 100,00 %
31.03.2021 19:56 23,1 C 19,4 C 15,0 C 49 % 1019,0 hPa 0,0 l/m 0 min 0 min 9 W/m 0,0 km/h (0 Bft) 100,00 %
31.03.2021 19:58 23,0 C 19,4 C 15,0 C 49 % 1019,1 hPa 0,0 l/m 0 min 0 min 7 W/m 0,0 km/h (0 Bft) 97,87 %
31.03.2021 20:00 22,9 C 19,4 C 15,0 C 50 % 1019,1 hPa 0,0 l/m 0 min 0 min 6 W/m 0,0 km/h (0 Bft) 100,00 %
31.03.2021 20:02 22,8 C 18,9 C 15,0 C 50 % 1019,1 hPa 0,0 l/m 0 min 0 min 5 W/m 0,0 km/h (0 Bft) 100,00 %
31.03.2021 20:04 22,6 C 18,9 C 14,5 C 51 % 1019,2 hPa 0,0 l/m 0 min 0 min 3 W/m 0,0 km/h (0 Bft) 97,87 %
31.03.2021 20:06 22,5 C 18,9 C 14,5 C 51 % 1019,1 hPa 0,0 l/m 0 min 0 min 0 W/m 0,0 km/h (0 Bft) 97,87 %
31.03.2021 20:08 22,4 C 18,9 C 14,5 C 50 % 1019,2 hPa 0,0 l/m 0 min 0 min 0 W/m 0,0 km/h (0 Bft) 98,00 %
31.03.2021 20:10 22,3 C 18,3 C 14,5 C 51 % 1019,2 hPa 0,0 l/m 0 min 0 min 0 W/m 0,0 km/h (0 Bft) 97,14 %
31.03.2021 20:12 22,1 C 18,3 C 14,5 C 52 % 1019,2 hPa 0,0 l/m 0 min 0 min 0 W/m 0,0 km/h (0 Bft) 97,87 %
31.03.2021 20:14 22,0 C 18,3 C 13,9 C 53 % 1019,1 hPa 0,0 l/m 0 min 0 min 0 W/m 0,0 km/h (0 Bft) 97,83 %
31.03.2021 20:16 21,9 C 18,3 C 13,9 C 53 % 1019,1 hPa 0,0 l/m 0 min 0 min 0 W/m 0,0 km/h (0 Bft) 95,74 %
31.03.2021 20:18 21,8 C 17,8 C 13,9 C 52 % 1019,2 hPa 0,0 l/m 0 min 0 min 0 W/m 0,0 km/h (0 Bft) 95,74 %
31.03.2021 20:20 21,6 C 17,8 C 13,9 C 53 % 1019,2 hPa 0,0 l/m 0 min 0 min 0 W/m 0,0 km/h (0 Bft) 95,74 %
31.03.2021 20:22 21,5 C 17,8 C 13,9 C 53 % 1019,2 hPa 0,0 l/m 0 min 0 min 0 W/m 0,0 km/h (0 Bft) 95,74 %
31.03.2021 20:24 21,3 C 17,8 C 13,4 C 54 % 1019,2 hPa 0,0 l/m 0 min 0 min 0 W/m 0,0 km/h (0 Bft) 95,74 %
31.03.2021 20:26 21,2 C 17,8 C 13,4 C 54 % 1019,1 hPa 0,0 l/m 0 min 0 min 0 W/m 0,0 km/h (0 Bft) 95,74 %
31.03.2021 20:28 21,1 C 17,8 C 13,4 C 55 % 1019,2 hPa 0,0 l/m 0 min 0 min 0 W/m 0,0 km/h (0 Bft) 97,87 %
31.03.2021 20:30 21,0 C 17,2 C 13,4 C 56 % 1019,2 hPa 0,0 l/m 0 min 0 min 0 W/m 0,0 km/h (0 Bft) 95,74 %
31.03.2021 20:32 20,9 C 17,2 C 13,4 C 56 % 1019,2 hPa 0,0 l/m 0 min 0 min 0 W/m 0,0 km/h (0 Bft) 93,62 %
31.03.2021 20:34 20,8 C 17,2 C 13,4 C 55 % 1019,2 hPa 0,0 l/m 0 min 0 min 0 W/m 0,0 km/h (0 Bft) 93,48 %
31.03.2021 20:36 20,6 C 17,2 C 13,4 C 55 % 1019,2 hPa 0,0 l/m 0 min 0 min 0 W/m 0,0 km/h (0 Bft) 93,88 %
31.03.2021 20:38 20,5 C 17,2 C 13,4 C 56 % 1019,2 hPa 0,0 l/m 0 min 0 min 0 W/m 0,0 km/h (0 Bft) 93,62 %
31.03.2021 20:40 20,4 C 17,2 C 12,8 C 57 % 1019,2 hPa 0,0 l/m 0 min 0 min 0 W/m 0,0 km/h (0 Bft) 95,74 %
31.03.2021 20:42 20,3 C 16,7 C 12,8 C 57 % 1019,2 hPa 0,0 l/m 0 min 0 min 0 W/m 0,0 km/h (0 Bft) 95,74 %
31.03.2021 20:44 20,1 C 16,7 C 12,8 C 57 % 1019,2 hPa 0,0 l/m 0 min 0 min 0 W/m 0,0 km/h (0 Bft) 95,74 %
31.03.2021 20:46 20,0 C 16,7 C 12,8 C 57 % 1019,2 hPa 0,0 l/m 0 min 0 min 0 W/m 0,0 km/h (0 Bft) 95,65 %
31.03.2021 20:48 19,9 C 16,7 C 12,8 C 58 % 1019,2 hPa 0,0 l/m 0 min 0 min 0 W/m 0,0 km/h (0 Bft) 93,62 %
31.03.2021 20:50 19,8 C 16,7 C 12,8 C 57 % 1019,2 hPa 0,0 l/m 0 min 0 min 0 W/m 0,0 km/h (0 Bft) 93,62 %
31.03.2021 20:52 19,7 C 16,7 C 12,8 C 57 % 1019,3 hPa 0,0 l/m 0 min 0 min 0 W/m 0,0 km/h (0 Bft) 93,62 %
31.03.2021 20:54 19,6 C 16,7 C 12,3 C 58 % 1019,2 hPa 0,0 l/m 0 min 0 min 0 W/m 0,0 km/h (0 Bft) 95,74 %
31.03.2021 20:56 19,5 C 16,1 C 12,3 C 60 % 1019,2 hPa 0,0 l/m 0 min 0 min 0 W/m 0,0 km/h (0 Bft) 95,74 %
31.03.2021 20:58 19,4 C 16,1 C 12,3 C 60 % 1019,2 hPa 0,0 l/m 0 min 0 min 0 W/m 0,0 km/h (0 Bft) 95,65 %
31.03.2021 21:00 19,2 C 16,1 C 12,3 C 60 % 1019,3 hPa 0,0 l/m 0 min 0 min 0 W/m 0,0 km/h (0 Bft) 95,74 %
31.03.2021 21:02 19,1 C 16,1 C 12,3 C 59 % 1019,3 hPa 0,0 l/m 0 min 0 min 0 W/m 0,0 km/h (0 Bft) 93,62 %
31.03.2021 21:04 19,0 C 15,6 C 12,3 C 59 % 1019,3 hPa 0,0 l/m 0 min 0 min 0 W/m 0,0 km/h (0 Bft) 93,75 %
31.03.2021 21:06 18,9 C 15,6 C 12,3 C 60 % 1019,2 hPa 0,0 l/m 0 min 0 min 0 W/m 0,0 km/h (0 Bft) 95,74 %
31.03.2021 21:08 18,8 C 15,6 C 12,3 C 60 % 1019,2 hPa 0,0 l/m 0 min 0 min 0 W/m 0,0 km/h (0 Bft) 95,74 %
31.03.2021 21:10 18,6 C 15,6 C 12,3 C 60 % 1019,3 hPa 0,0 l/m 0 min 0 min 0 W/m 0,0 km/h (0 Bft) 93,48 %
31.03.2021 21:12 18,6 C 15,6 C 11,7 C 61 % 1019,3 hPa 0,0 l/m 0 min 0 min 0 W/m 0,0 km/h (0 Bft) 95,74 %
31.03.2021 21:14 18,5 C 15,6 C 11,7 C 61 % 1019,3 hPa 0,0 l/m 0 min 0 min 0 W/m 0,0 km/h (0 Bft) 95,74 %
31.03.2021 21:16 18,4 C 15,6 C 11,7 C 60 % 1019,2 hPa 0,0 l/m 0 min 0 min 0 W/m 0,0 km/h (0 Bft) 97,87 %
31.03.2021 21:18 18,3 C 15,6 C 11,7 C 60 % 1019,3 hPa 0,0 l/m 0 min 0 min 0 W/m 0,0 km/h (0 Bft) 97,87 %
31.03.2021 21:20 18,1 C 15,6 C 11,7 C 61 % 1019,3 hPa 0,0 l/m 0 min 0 min 0 W/m 0,0 km/h (0 Bft) 91,49 %
31.03.2021 21:22 18,0 C 15,6 C 11,7 C 61 % 1019,3 hPa 0,0 l/m 0 min 0 min 0 W/m 0,0 km/h (0 Bft) 97,83 %
31.03.2021 21:24 18,0 C 15,6 C 11,7 C 61 % 1019,3 hPa 0,0 l/m 0 min 0 min 0 W/m 0,0 km/h (0 Bft) 97,87 %
31.03.2021 21:26 17,9 C 15,6 C 11,7 C 63 % 1019,4 hPa 0,0 l/m 0 min 0 min 0 W/m 0,0 km/h (0 Bft) 97,87 %
31.03.2021 21:28 17,8 C 15,0 C 11,7 C 64 % 1019,4 hPa 0,0 l/m 0 min 0 min 0 W/m 0,0 km/h (0 Bft) 97,87 %
31.03.2021 21:30 17,8 C 15,0 C 11,7 C 64 % 1019,4 hPa 0,0 l/m 0 min 0 min 0 W/m 0,0 km/h (0 Bft) 97,87 %
31.03.2021 21:32 17,7 C 15,0 C 11,7 C 63 % 1019,4 hPa 0,0 l/m 0 min 0 min 0 W/m 3,2 km/h (1 Bft) 97,83 %
31.03.2021 21:34 17,6 C 15,0 C 11,7 C 62 % 1019,4 hPa 0,0 l/m 0 min 0 min 0 W/m 3,2 km/h (1 Bft) 95,74 %
31.03.2021 21:36 17,5 C 15,0 C 11,7 C 62 % 1019,4 hPa 0,0 l/m 0 min 0 min 0 W/m 0,0 km/h (0 Bft) 95,74 %
31.03.2021 21:38 17,4 C 15,0 C 11,7 C 62 % 1019,5 hPa 0,0 l/m 0 min 0 min 0 W/m 0,0 km/h (0 Bft) 95,74 %
31.03.2021 21:40 17,3 C 15,0 C 11,7 C 62 % 1019,4 hPa 0,0 l/m 0 min 0 min 0 W/m 0,0 km/h (0 Bft) 97,87 %
31.03.2021 21:42 17,3 C 15,0 C 11,1 C 63 % 1019,4 hPa 0,0 l/m 0 min 0 min 0 W/m 0,0 km/h (0 Bft) 97,87 %
31.03.2021 21:44 17,2 C 15,0 C 11,1 C 63 % 1019,4 hPa 0,0 l/m 0 min 0 min 0 W/m 0,0 km/h (0 Bft) 100,00 %
31.03.2021 21:46 17,1 C 14,4 C 11,1 C 64 % 1019,5 hPa 0,0 l/m 0 min 0 min 0 W/m 0,0 km/h (0 Bft) 97,87 %
31.03.2021 21:48 17,1 C 14,4 C 11,1 C 64 % 1019,5 hPa 0,0 l/m 0 min 0 min 0 W/m 0,0 km/h (0 Bft) 100,00 %
31.03.2021 21:50 17,0 C 14,4 C 11,1 C 64 % 1019,5 hPa 0,0 l/m 0 min 0 min 0 W/m 0,0 km/h (0 Bft) 97,87 %
31.03.2021 21:52 17,0 C 14,4 C 11,1 C 64 % 1019,5 hPa 0,0 l/m 0 min 0 min 0 W/m 0,0 km/h (0 Bft) 100,00 %
31.03.2021 21:54 16,9 C 14,4 C 11,1 C 64 % 1019,5 hPa 0,0 l/m 0 min 0 min 0 W/m 0,0 km/h (0 Bft) 97,87 %
31.03.2021 21:56 16,9 C 14,4 C 11,1 C 63 % 1019,5 hPa 0,0 l/m 0 min 0 min 0 W/m 0,0 km/h (0 Bft) 100,00 %
31.03.2021 21:58 16,8 C 14,4 C 11,1 C 63 % 1019,5 hPa 0,0 l/m 0 min 0 min 0 W/m 0,0 km/h (0 Bft) 100,00 %
31.03.2021 22:00 16,7 C 14,4 C 11,1 C 63 % 1019,5 hPa 0,0 l/m 0 min 0 min 0 W/m 0,0 km/h (0 Bft) 100,00 %
31.03.2021 22:02 16,6 C 14,4 C 11,1 C 63 % 1019,5 hPa 0,0 l/m 0 min 0 min 0 W/m 0,0 km/h (0 Bft) 100,00 %
31.03.2021 22:04 16,6 C 14,4 C 11,1 C 63 % 1019,5 hPa 0,0 l/m 0 min 0 min 0 W/m 0,0 km/h (0 Bft) 97,87 %
31.03.2021 22:06 16,5 C 14,4 C 11,1 C 63 % 1019,5 hPa 0,0 l/m 0 min 0 min 0 W/m 0,0 km/h (0 Bft) 100,00 %
31.03.2021 22:08 16,5 C 14,4 C 11,1 C 63 % 1019,5 hPa 0,0 l/m 0 min 0 min 0 W/m 0,0 km/h (0 Bft) 100,00 %
31.03.2021 22:10 16,4 C 14,4 C 11,1 C 63 % 1019,5 hPa 0,0 l/m 0 min 0 min 0 W/m 3,2 km/h (1 Bft) 100,00 %
31.03.2021 22:12 16,4 C 14,4 C 11,1 C 63 % 1019,5 hPa 0,0 l/m 0 min 0 min 0 W/m 6,4 km/h (2 Bft) 100,00 %
31.03.2021 22:14 16,3 C 14,4 C 11,1 C 63 % 1019,4 hPa 0,0 l/m 0 min 0 min 0 W/m 3,2 km/h (1 Bft) 97,87 %
31.03.2021 22:16 16,3 C 14,4 C 11,1 C 63 % 1019,5 hPa 0,0 l/m 0 min 0 min 0 W/m 3,2 km/h (1 Bft) 97,87 %
31.03.2021 22:18 16,2 C 15,0 C 11,1 C 63 % 1019,5 hPa 0,0 l/m 0 min 0 min 0 W/m 3,2 km/h (1 Bft) 95,74 %
31.03.2021 22:20 16,2 C 14,4 C 11,1 C 63 % 1019,5 hPa 0,0 l/m 0 min 0 min 0 W/m 0,0 km/h (0 Bft) 97,83 %
31.03.2021 22:22 16,1 C 14,4 C 11,1 C 63 % 1019,5 hPa 0,0 l/m 0 min 0 min 0 W/m 0,0 km/h (0 Bft) 97,87 %
31.03.2021 22:24 16,1 C 14,4 C 11,1 C 63 % 1019,5 hPa 0,0 l/m 0 min 0 min 0 W/m 3,2 km/h (1 Bft) 97,87 %
31.03.2021 22:26 16,1 C 14,4 C 11,1 C 64 % 1019,5 hPa 0,0 l/m 0 min 0 min 0 W/m 6,4 km/h (2 Bft) 97,87 %
31.03.2021 22:28 16,1 C 14,4 C 11,1 C 64 % 1019,6 hPa 0,0 l/m 0 min 0 min 0 W/m 3,2 km/h (1 Bft) 97,87 %
31.03.2021 22:30 16,0 C 14,4 C 11,1 C 63 % 1019,5 hPa 0,0 l/m 0 min 0 min 0 W/m 3,2 km/h (1 Bft) 97,87 %
31.03.2021 22:32 16,0 C 14,4 C 11,1 C 64 % 1019,6 hPa 0,0 l/m 0 min 0 min 0 W/m 3,2 km/h (1 Bft) 97,83 %
31.03.2021 22:34 16,0 C 14,4 C 11,1 C 64 % 1019,6 hPa 0,0 l/m 0 min 0 min 0 W/m 3,2 km/h (1 Bft) 97,87 %
31.03.2021 22:36 16,0 C 14,4 C 11,1 C 64 % 1019,6 hPa 0,0 l/m 0 min 0 min 0 W/m 3,2 km/h (1 Bft) 97,87 %
31.03.2021 22:38 16,0 C 14,4 C 11,1 C 64 % 1019,6 hPa 0,0 l/m 0 min 0 min 0 W/m 3,2 km/h (1 Bft) 97,87 %
31.03.2021 22:40 16,0 C 14,4 C 11,1 C 64 % 1019,6 hPa 0,0 l/m 0 min 0 min 0 W/m 3,2 km/h (1 Bft) 95,74 %
31.03.2021 22:42 16,0 C 14,4 C 11,1 C 64 % 1019,6 hPa 0,0 l/m 0 min 0 min 0 W/m 0,0 km/h (0 Bft) 97,87 %
31.03.2021 22:44 16,0 C 14,4 C 11,1 C 64 % 1019,6 hPa 0,0 l/m 0 min 0 min 0 W/m 3,2 km/h (1 Bft) 95,65 %
31.03.2021 22:46 15,9 C 14,4 C 11,1 C 64 % 1019,6 hPa 0,0 l/m 0 min 0 min 0 W/m 0,0 km/h (0 Bft) 95,74 %
31.03.2021 22:48 15,9 C 14,4 C 11,1 C 64 % 1019,6 hPa 0,0 l/m 0 min 0 min 0 W/m 0,0 km/h (0 Bft) 95,74 %
31.03.2021 22:50 15,9 C 14,4 C 11,1 C 64 % 1019,6 hPa 0,0 l/m 0 min 0 min 0 W/m 3,2 km/h (1 Bft) 100,00 %
31.03.2021 22:52 15,9 C 14,4 C 11,1 C 64 % 1019,6 hPa 0,0 l/m 0 min 0 min 0 W/m 3,2 km/h (1 Bft) 100,00 %
31.03.2021 22:54 15,9 C 14,4 C 11,1 C 64 % 1019,6 hPa 0,0 l/m 0 min 0 min 0 W/m 3,2 km/h (1 Bft) 97,87 %
31.03.2021 22:56 15,9 C 14,4 C 11,1 C 64 % 1019,5 hPa 0,0 l/m 0 min 0 min 0 W/m 3,2 km/h (1 Bft) 100,00 %
31.03.2021 22:58 15,9 C 14,4 C 10,6 C 64 % 1019,6 hPa 0,0 l/m 0 min 0 min 0 W/m 0,0 km/h (0 Bft) 100,00 %
31.03.2021 23:00 15,8 C 14,4 C 10,6 C 64 % 1019,6 hPa 0,0 l/m 0 min 0 min 0 W/m 0,0 km/h (0 Bft) 97,87 %
31.03.2021 23:02 15,8 C 14,4 C 10,6 C 64 % 1019,5 hPa 0,0 l/m 0 min 0 min 0 W/m 0,0 km/h (0 Bft) 97,87 %
31.03.2021 23:04 15,8 C 14,4 C 10,6 C 64 % 1019,5 hPa 0,0 l/m 0 min 0 min 0 W/m 0,0 km/h (0 Bft) 100,00 %
31.03.2021 23:06 15,8 C 14,4 C 10,6 C 65 % 1019,5 hPa 0,0 l/m 0 min 0 min 0 W/m 3,2 km/h (1 Bft) 100,00 %
31.03.2021 23:08 15,8 C 14,4 C 11,1 C 65 % 1019,5 hPa 0,0 l/m 0 min 0 min 0 W/m 6,4 km/h (2 Bft) 100,00 %
31.03.2021 23:10 15,7 C 14,4 C 11,1 C 65 % 1019,5 hPa 0,0 l/m 0 min 0 min 0 W/m 6,4 km/h (2 Bft) 100,00 %
31.03.2021 23:12 15,7 C 14,4 C 11,1 C 65 % 1019,5 hPa 0,0 l/m 0 min 0 min 0 W/m 0,0 km/h (0 Bft) 97,87 %
31.03.2021 23:14 15,6 C 14,4 C 11,1 C 65 % 1019,5 hPa 0,0 l/m 0 min 0 min 0 W/m 3,2 km/h (1 Bft) 100,00 %
31.03.2021 23:16 15,6 C 14,4 C 11,1 C 65 % 1019,6 hPa 0,0 l/m 0 min 0 min 0 W/m 3,2 km/h (1 Bft) 100,00 %
31.03.2021 23:18 15,6 C 14,4 C 11,1 C 65 % 1019,6 hPa 0,0 l/m 0 min 0 min 0 W/m 3,2 km/h (1 Bft) 100,00 %
31.03.2021 23:20 15,6 C 14,4 C 11,1 C 65 % 1019,6 hPa 0,0 l/m 0 min 0 min 0 W/m 6,4 km/h (2 Bft) 100,00 %
31.03.2021 23:22 15,6 C 14,4 C 11,1 C 65 % 1019,6 hPa 0,0 l/m 0 min 0 min 0 W/m 3,2 km/h (1 Bft) 97,87 %
31.03.2021 23:24 15,6 C 14,4 C 11,1 C 65 % 1019,6 hPa 0,0 l/m 0 min 0 min 0 W/m 3,2 km/h (1 Bft) 100,00 %
31.03.2021 23:26 15,6 C 14,4 C 11,1 C 65 % 1019,6 hPa 0,0 l/m 0 min 0 min 0 W/m 3,2 km/h (1 Bft) 97,87 %
31.03.2021 23:28 15,6 C 14,4 C 11,1 C 65 % 1019,6 hPa 0,0 l/m 0 min 0 min 0 W/m 3,2 km/h (1 Bft) 100,00 %
31.03.2021 23:30 15,5 C 14,4 C 11,1 C 65 % 1019,6 hPa 0,0 l/m 0 min 0 min 0 W/m 0,0 km/h (0 Bft) 100,00 %
31.03.2021 23:32 15,5 C 14,4 C 11,1 C 65 % 1019,6 hPa 0,0 l/m 0 min 0 min 0 W/m 3,2 km/h (1 Bft) 100,00 %
31.03.2021 23:34 15,5 C 14,4 C 11,1 C 65 % 1019,6 hPa 0,0 l/m 0 min 0 min 0 W/m 3,2 km/h (1 Bft) 100,00 %
31.03.2021 23:36 15,5 C 13,9 C 11,1 C 65 % 1019,6 hPa 0,0 l/m 0 min 0 min 0 W/m 3,2 km/h (1 Bft) 100,00 %
31.03.2021 23:38 15,5 C 13,9 C 11,1 C 65 % 1019,6 hPa 0,0 l/m 0 min 0 min 0 W/m 3,2 km/h (1 Bft) 100,00 %
31.03.2021 23:40 15,5 C 13,9 C 11,1 C 65 % 1019,7 hPa 0,0 l/m 0 min 0 min 0 W/m 0,0 km/h (0 Bft) 100,00 %
31.03.2021 23:42 15,5 C 13,9 C 10,6 C 65 % 1019,6 hPa 0,0 l/m 0 min 0 min 0 W/m 3,2 km/h (1 Bft) 97,83 %
31.03.2021 23:44 15,5 C 13,9 C 11,1 C 65 % 1019,6 hPa 0,0 l/m 0 min 0 min 0 W/m 6,4 km/h (2 Bft) 100,00 %
31.03.2021 23:46 15,4 C 13,9 C 11,1 C 65 % 1019,6 hPa 0,0 l/m 0 min 0 min 0 W/m 6,4 km/h (2 Bft) 98,04 %
31.03.2021 23:48 15,4 C 13,9 C 11,1 C 65 % 1019,7 hPa 0,0 l/m 0 min 0 min 0 W/m 3,2 km/h (1 Bft) 100,00 %
31.03.2021 23:50 15,4 C 13,9 C 11,1 C 65 % 1019,6 hPa 0,0 l/m 0 min 0 min 0 W/m 3,2 km/h (1 Bft) 100,00 %
31.03.2021 23:52 15,4 C 13,9 C 10,6 C 65 % 1019,7 hPa 0,0 l/m 0 min 0 min 0 W/m 0,0 km/h (0 Bft) 100,00 %
31.03.2021 23:54 15,4 C 13,9 C 10,6 C 65 % 1019,7 hPa 0,0 l/m 0 min 0 min 0 W/m 0,0 km/h (0 Bft) 100,00 %
31.03.2021 23:56 15,4 C 13,3 C 10,6 C 65 % 1019,7 hPa 0,0 l/m 0 min 0 min 0 W/m 0,0 km/h (0 Bft) 97,87 %
31.03.2021 23:58 15,4 C 13,3 C 10,6 C 65 % 1019,7 hPa 0,0 l/m 0 min 0 min 0 W/m 0,0 km/h (0 Bft) 100,00 %
_ Min-Zeit 07:28 00:52 00:56 14:30 19:34 - - - - 00:00 09:14
Minimum _ 9,7 C 8,9 C 6,1 C 35 % 1018,9 hPa - - - - 0,0 km/h (0 Bft) 75,00 %
_ Max-Zeit 16:38 16:38 12:48 01:02 00:00 00:00 12:08 00:00 13:52 16:24 00:00
Maximum _ 27,0 C 35,0 C 33,9 C 68 % 1026,3 hPa 0,0 l/m 4 min 0 min 764 W/m 22,5 km/h
S (4 Bft)
100,00 %
Durchschnitt _ 17,5 C 18,5 C 14,5 C 55 % 1022,2 hPa #0,0 l/m #9:38 h #0 min. 410 W/m 7,8 km/h (2 Bft) 97,66 %
© 2021 W. Hausmann